GEFSMW_prec_meanprecacc_210.txt.gz
Total_Precipitation_Accumulation
1.20 1.48 1.99 2.68 3.17 3.33 3.36 3.49 3.41 3.43 3.44 3.35 3.39 3.59 3.76 3.78 3.73 3.82 3.88 3.73 3.62 3.67 3.82 3.82 3.76 3.53 3.34 3.19 3.11 3.03 2.81 2.55 2.35 2.32 2.22 1.99 1.79 1.78 1.72 1.66 1.66 1.54 1.50
1.12 1.51 1.89 2.32 2.74 3.09 3.21 3.34 3.28 3.48 3.73 4.04 4.45 4.74 4.90 4.83 4.69 4.63 4.52 4.36 4.21 4.15 4.10 4.11 3.91 3.66 3.49 3.26 3.05 2.96 2.80 2.57 2.42 2.37 2.42 2.17 1.98 1.73 1.55 1.60 1.57 1.50 1.48
1.19 1.49 1.69 2.01 2.35 2.70 2.93 3.07 3.32 3.77 4.22 4.76 5.50 5.88 5.72 5.36 5.19 4.92 4.82 4.60 4.33 4.23 4.21 3.97 3.76 3.55 3.35 3.21 2.99 2.86 2.77 2.55 2.42 2.39 2.53 2.35 2.14 1.91 1.75 1.58 1.48 1.47 1.49
1.27 1.39 1.55 1.80 2.04 2.40 2.79 3.11 3.52 4.09 4.68 5.17 5.67 5.95 5.90 5.66 5.42 5.00 4.63 4.27 3.94 3.71 3.57 3.46 3.24 3.11 2.98 2.85 2.66 2.61 2.55 2.43 2.25 2.20 2.10 2.02 1.95 1.90 1.78 1.63 1.47 1.43 1.46
1.16 1.24 1.34 1.52 1.83 2.25 2.70 3.10 3.51 4.10 4.63 5.14 5.50 5.74 5.80 5.68 5.33 4.70 4.11 3.74 3.43 3.17 2.90 2.66 2.56 2.55 2.47 2.28 2.10 2.03 2.00 1.96 1.90 1.88 1.79 1.74 1.70 1.69 1.65 1.61 1.54 1.47 1.38
1.10 1.08 1.16 1.32 1.68 2.02 2.51 2.89 3.21 3.88 4.57 5.10 5.46 5.69 5.70 5.42 4.83 4.22 3.69 3.37 3.10 2.82 2.58 2.39 2.20 2.12 2.02 1.86 1.67 1.55 1.53 1.57 1.60 1.62 1.59 1.49 1.45 1.46 1.50 1.46 1.40 1.37 1.32
0.98 1.00 1.14 1.20 1.49 1.86 2.22 2.57 2.94 3.41 3.91 4.34 4.59 4.73 4.78 4.56 4.19 3.83 3.40 3.05 2.79 2.54 2.27 1.98 1.78 1.67 1.59 1.50 1.43 1.31 1.25 1.30 1.35 1.34 1.32 1.32 1.27 1.26 1.34 1.40 1.37 1.32 1.27
1.05 1.06 1.18 1.22 1.31 1.57 1.89 2.28 2.59 2.89 3.14 3.32 3.50 3.46 3.42 3.39 3.27 2.94 2.55 2.27 2.04 1.89 1.73 1.53 1.41 1.33 1.29 1.25 1.22 1.15 1.07 1.10 1.19 1.22 1.26 1.28 1.26 1.31 1.36 1.40 1.46 1.51 1.39
1.07 1.12 1.22 1.23 1.29 1.43 1.66 1.89 2.03 2.22 2.27 2.21 2.23 2.29 2.33 2.32 2.25 2.11 1.85 1.54 1.33 1.23 1.16 1.13 1.12 1.00 0.99 1.02 1.05 1.03 1.02 1.04 1.04 1.06 1.11 1.15 1.20 1.25 1.25 1.30 1.41 1.59 1.58
1.08 1.14 1.22 1.32 1.36 1.37 1.55 1.66 1.63 1.62 1.67 1.70 1.67 1.63 1.66 1.69 1.69 1.62 1.47 1.29 1.12 0.98 0.89 0.87 0.84 0.76 0.73 0.78 0.83 0.87 0.91 0.99 0.97 0.94 0.94 0.96 1.02 1.18 1.29 1.36 1.45 1.57 1.65
1.10 1.20 1.21 1.21 1.19 1.17 1.19 1.23 1.28 1.33 1.34 1.31 1.32 1.32 1.26 1.22 1.21 1.25 1.22 1.11 0.98 0.86 0.77 0.70 0.70 0.69 0.64 0.64 0.70 0.71 0.73 0.82 0.85 0.80 0.82 0.88 0.95 1.04 1.11 1.22 1.36 1.55 1.71
1.17 1.19 1.19 1.11 1.07 1.05 1.05 1.04 1.05 1.07 1.12 1.13 1.11 1.11 1.01 0.97 0.96 0.95 0.94 0.90 0.89 0.85 0.79 0.74 0.71 0.64 0.59 0.59 0.61 0.61 0.60 0.64 0.69 0.71 0.74 0.73 0.76 0.88 0.96 1.06 1.19 1.33 1.46
1.39 1.39 1.30 1.13 1.01 0.98 0.97 0.90 0.86 0.85 0.82 0.85 0.88 0.94 0.89 0.83 0.82 0.78 0.78 0.81 0.82 0.81 0.76 0.73 0.68 0.62 0.60 0.61 0.60 0.58 0.56 0.53 0.55 0.60 0.66 0.69 0.77 0.86 0.94 1.04 1.09 1.17 1.22
1.37 1.32 1.28 1.17 1.09 0.97 0.91 0.83 0.77 0.73 0.70 0.68 0.68 0.75 0.78 0.75 0.72 0.73 0.73 0.69 0.68 0.69 0.64 0.59 0.59 0.59 0.56 0.51 0.48 0.47 0.49 0.50 0.49 0.49 0.53 0.59 0.69 0.79 0.91 0.97 1.04 1.15 1.25
1.42 1.42 1.34 1.20 1.16 1.07 0.97 0.86 0.78 0.70 0.66 0.69 0.72 0.73 0.72 0.67 0.68 0.71 0.70 0.62 0.57 0.54 0.52 0.50 0.51 0.51 0.47 0.42 0.40 0.41 0.39 0.44 0.46 0.48 0.48 0.46 0.51 0.63 0.71 0.77 0.92 1.15 1.33
1.45 1.38 1.28 1.22 1.18 1.09 1.03 0.92 0.83 0.74 0.73 0.80 0.83 0.79 0.76 0.73 0.70 0.67 0.64 0.59 0.55 0.52 0.49 0.52 0.48 0.42 0.32 0.32 0.34 0.34 0.38 0.44 0.49 0.56 0.53 0.43 0.41 0.46 0.52 0.59 0.70 0.91 1.17
1.68 1.59 1.42 1.31 1.30 1.18 1.04 0.96 0.89 0.84 0.84 0.83 0.80 0.78 0.77 0.73 0.63 0.56 0.59 0.59 0.58 0.54 0.50 0.52 0.47 0.41 0.30 0.26 0.25 0.27 0.33 0.44 0.53 0.60 0.60 0.49 0.41 0.50 0.56 0.56 0.58 0.69 0.87
1.75 1.64 1.52 1.44 1.36 1.24 1.13 1.03 0.93 0.86 0.80 0.79 0.75 0.69 0.68 0.68 0.58 0.56 0.59 0.57 0.58 0.59 0.53 0.49 0.49 0.48 0.30 0.27 0.27 0.29 0.39 0.49 0.51 0.50 0.54 0.60 0.64 0.56 0.54 0.58 0.73 0.89 0.98
1.62 1.55 1.48 1.47 1.37 1.23 1.11 1.02 0.93 0.82 0.73 0.72 0.68 0.60 0.54 0.53 0.53 0.52 0.55 0.59 0.61 0.63 0.55 0.49 0.52 0.51 0.38 0.31 0.31 0.34 0.44 0.51 0.49 0.44 0.44 0.48 0.57 0.55 0.60 0.74 0.98 1.18 1.34
1.38 1.35 1.31 1.28 1.26 1.16 1.06 1.00 0.93 0.82 0.67 0.58 0.49 0.47 0.48 0.47 0.52 0.55 0.57 0.54 0.59 0.64 0.54 0.45 0.46 0.43 0.36 0.30 0.31 0.36 0.42 0.50 0.50 0.51 0.50 0.54 0.55 0.58 0.72 0.86 1.15 1.38 1.48
1.26 1.17 1.11 1.09 1.06 0.98 0.87 0.82 0.78 0.68 0.48 0.38 0.37 0.40 0.41 0.42 0.43 0.53 0.57 0.54 0.53 0.57 0.56 0.49 0.45 0.38 0.29 0.25 0.28 0.31 0.35 0.42 0.50 0.54 0.61 0.66 0.66 0.64 0.75 0.92 1.12 1.34 1.40
1.21 1.09 1.00 0.91 0.83 0.76 0.76 0.72 0.61 0.45 0.34 0.33 0.35 0.37 0.36 0.31 0.32 0.47 0.50 0.50 0.55 0.51 0.53 0.57 0.54 0.41 0.31 0.22 0.19 0.21 0.26 0.34 0.51 0.62 0.65 0.66 0.67 0.69 0.83 0.97 1.18 1.37 1.48
1.03 0.89 0.79 0.71 0.64 0.66 0.68 0.61 0.47 0.36 0.30 0.35 0.39 0.37 0.32 0.31 0.31 0.38 0.41 0.42 0.49 0.48 0.44 0.48 0.46 0.39 0.33 0.23 0.14 0.14 0.18 0.26 0.38 0.54 0.69 0.69 0.64 0.78 1.07 1.25 1.36 1.52 1.59
0.84 0.71 0.64 0.63 0.63 0.62 0.53 0.46 0.34 0.32 0.35 0.41 0.41 0.37 0.38 0.36 0.30 0.29 0.27 0.29 0.32 0.35 0.40 0.41 0.39 0.37 0.33 0.23 0.17 0.19 0.22 0.25 0.31 0.44 0.64 0.76 0.80 0.96 1.25 1.47 1.57 1.63 1.56
0.68 0.58 0.57 0.57 0.57 0.50 0.42 0.35 0.31 0.30 0.38 0.39 0.34 0.31 0.31 0.30 0.29 0.24 0.19 0.18 0.19 0.20 0.26 0.31 0.32 0.33 0.28 0.20 0.20 0.22 0.24 0.27 0.32 0.39 0.57 0.77 0.87 1.08 1.30 1.44 1.45 1.40 1.31
0.52 0.47 0.45 0.42 0.39 0.36 0.34 0.30 0.27 0.25 0.31 0.35 0.33 0.28 0.26 0.24 0.20 0.21 0.20 0.15 0.14 0.15 0.17 0.20 0.21 0.21 0.20 0.18 0.17 0.18 0.24 0.30 0.37 0.43 0.66 0.85 0.95 1.11 1.23 1.31 1.28 1.20 1.11

GEFSMW_prec_meanprecacc_216.txt.gz
Total_Precipitation_Accumulation
1.26 1.55 2.06 2.75 3.23 3.41 3.45 3.61 3.56 3.57 3.57 3.49 3.51 3.70 3.82 3.84 3.79 3.89 3.93 3.79 3.69 3.74 3.91 3.91 3.85 3.60 3.41 3.28 3.20 3.09 2.86 2.59 2.39 2.35 2.24 2.02 1.81 1.79 1.74 1.67 1.67 1.55 1.52
1.18 1.58 1.99 2.41 2.82 3.17 3.30 3.44 3.43 3.63 3.87 4.19 4.62 4.87 4.99 4.91 4.78 4.72 4.61 4.44 4.32 4.27 4.24 4.24 4.02 3.75 3.59 3.36 3.13 3.02 2.85 2.61 2.47 2.41 2.45 2.18 1.99 1.73 1.56 1.60 1.58 1.51 1.49
1.25 1.58 1.79 2.10 2.42 2.78 3.02 3.18 3.43 3.88 4.37 4.95 5.69 6.05 5.84 5.47 5.28 5.00 4.90 4.70 4.45 4.37 4.36 4.11 3.89 3.67 3.45 3.27 3.04 2.94 2.85 2.61 2.47 2.44 2.56 2.37 2.14 1.91 1.75 1.58 1.48 1.47 1.49
1.32 1.47 1.64 1.86 2.09 2.47 2.87 3.20 3.61 4.18 4.81 5.32 5.82 6.11 6.05 5.78 5.51 5.07 4.69 4.33 4.01 3.82 3.69 3.57 3.37 3.24 3.09 2.90 2.71 2.67 2.63 2.52 2.34 2.27 2.14 2.05 1.96 1.91 1.79 1.64 1.47 1.44 1.46
1.19 1.29 1.41 1.60 1.91 2.33 2.77 3.20 3.59 4.18 4.74 5.25 5.64 5.88 5.92 5.78 5.41 4.76 4.17 3.80 3.48 3.23 2.96 2.73 2.64 2.64 2.55 2.34 2.16 2.10 2.08 2.04 1.99 1.96 1.86 1.79 1.73 1.71 1.66 1.62 1.54 1.47 1.38
1.17 1.16 1.28 1.43 1.81 2.14 2.60 2.96 3.28 3.96 4.67 5.20 5.56 5.80 5.81 5.53 4.92 4.28 3.75 3.43 3.16 2.90 2.64 2.46 2.27 2.19 2.08 1.93 1.75 1.64 1.63 1.66 1.68 1.69 1.66 1.55 1.50 1.49 1.53 1.47 1.42 1.38 1.33
1.07 1.11 1.28 1.33 1.61 1.96 2.30 2.63 2.99 3.46 3.97 4.40 4.65 4.82 4.88 4.65 4.28 3.92 3.49 3.14 2.91 2.64 2.34 2.04 1.84 1.73 1.65 1.56 1.49 1.37 1.32 1.37 1.41 1.40 1.38 1.38 1.31 1.29 1.37 1.41 1.39 1.34 1.28
1.10 1.13 1.27 1.32 1.40 1.64 1.94 2.33 2.62 2.92 3.18 3.36 3.53 3.50 3.49 3.47 3.36 3.04 2.65 2.35 2.10 1.94 1.77 1.56 1.44 1.37 1.34 1.30 1.27 1.18 1.11 1.14 1.23 1.27 1.32 1.33 1.30 1.34 1.38 1.43 1.48 1.53 1.40
1.11 1.17 1.27 1.29 1.34 1.47 1.70 1.93 2.06 2.25 2.29 2.24 2.27 2.33 2.37 2.37 2.31 2.18 1.91 1.59 1.37 1.26 1.19 1.15 1.14 1.02 1.02 1.06 1.08 1.06 1.04 1.06 1.06 1.09 1.14 1.18 1.23 1.28 1.29 1.33 1.44 1.62 1.60
1.12 1.18 1.26 1.37 1.41 1.42 1.60 1.72 1.68 1.66 1.71 1.75 1.72 1.68 1.70 1.73 1.73 1.67 1.52 1.33 1.14 1.00 0.91 0.89 0.86 0.78 0.74 0.79 0.85 0.88 0.92 1.00 0.98 0.95 0.96 0.98 1.04 1.21 1.31 1.38 1.48 1.61 1.68
1.11 1.23 1.25 1.25 1.24 1.22 1.26 1.30 1.35 1.39 1.39 1.36 1.38 1.37 1.30 1.27 1.27 1.31 1.27 1.15 1.02 0.89 0.79 0.72 0.72 0.71 0.66 0.65 0.71 0.71 0.74 0.82 0.86 0.81 0.84 0.89 0.97 1.06 1.12 1.24 1.38 1.58 1.74
1.19 1.21 1.21 1.14 1.10 1.10 1.12 1.11 1.14 1.15 1.17 1.17 1.17 1.16 1.06 1.02 1.01 0.99 1.00 0.95 0.93 0.89 0.82 0.76 0.73 0.67 0.61 0.61 0.63 0.62 0.61 0.65 0.70 0.73 0.77 0.75 0.78 0.90 0.98 1.09 1.21 1.36 1.49
1.40 1.40 1.31 1.16 1.03 1.01 1.03 0.98 0.95 0.94 0.88 0.90 0.93 0.99 0.94 0.89 0.88 0.82 0.82 0.86 0.86 0.85 0.81 0.76 0.71 0.64 0.61 0.62 0.62 0.60 0.58 0.56 0.57 0.62 0.69 0.72 0.80 0.89 0.96 1.07 1.12 1.20 1.25
1.38 1.33 1.29 1.19 1.12 1.01 0.94 0.88 0.85 0.83 0.79 0.75 0.73 0.79 0.84 0.81 0.77 0.76 0.75 0.73 0.74 0.75 0.69 0.63 0.63 0.63 0.58 0.53 0.50 0.50 0.51 0.53 0.52 0.52 0.56 0.62 0.72 0.82 0.94 1.00 1.08 1.20 1.31
1.46 1.45 1.36 1.23 1.20 1.12 1.01 0.91 0.85 0.81 0.77 0.78 0.78 0.77 0.76 0.71 0.71 0.74 0.73 0.66 0.64 0.60 0.57 0.54 0.53 0.53 0.49 0.44 0.42 0.43 0.42 0.47 0.50 0.51 0.51 0.49 0.54 0.66 0.74 0.81 0.97 1.21 1.40
1.52 1.42 1.31 1.26 1.24 1.17 1.09 0.96 0.88 0.81 0.80 0.88 0.90 0.85 0.81 0.76 0.72 0.71 0.70 0.65 0.63 0.60 0.54 0.55 0.50 0.43 0.33 0.33 0.35 0.36 0.40 0.46 0.51 0.58 0.55 0.45 0.43 0.48 0.54 0.62 0.74 0.96 1.21
1.74 1.65 1.47 1.37 1.38 1.25 1.10 1.00 0.93 0.90 0.90 0.90 0.86 0.86 0.85 0.78 0.69 0.63 0.66 0.64 0.63 0.58 0.53 0.53 0.48 0.42 0.31 0.27 0.27 0.30 0.35 0.46 0.54 0.61 0.62 0.50 0.42 0.51 0.58 0.58 0.60 0.72 0.91
1.79 1.69 1.56 1.48 1.41 1.30 1.18 1.07 0.99 0.91 0.86 0.85 0.81 0.77 0.78 0.77 0.68 0.65 0.65 0.60 0.61 0.61 0.55 0.49 0.49 0.48 0.31 0.28 0.28 0.31 0.40 0.49 0.51 0.51 0.56 0.61 0.65 0.58 0.57 0.61 0.76 0.92 1.01
1.65 1.58 1.51 1.51 1.41 1.27 1.14 1.05 0.97 0.86 0.77 0.76 0.74 0.66 0.61 0.59 0.57 0.55 0.58 0.60 0.62 0.64 0.56 0.49 0.52 0.52 0.39 0.32 0.33 0.35 0.45 0.51 0.49 0.45 0.45 0.49 0.58 0.57 0.62 0.77 1.00 1.21 1.36
1.39 1.36 1.32 1.30 1.29 1.19 1.08 1.01 0.95 0.85 0.70 0.60 0.52 0.51 0.51 0.50 0.54 0.56 0.59 0.56 0.60 0.65 0.55 0.46 0.47 0.44 0.37 0.31 0.32 0.38 0.43 0.51 0.50 0.51 0.50 0.55 0.56 0.59 0.74 0.88 1.17 1.40 1.50
1.27 1.18 1.12 1.10 1.07 1.00 0.89 0.83 0.80 0.70 0.50 0.40 0.39 0.42 0.43 0.44 0.45 0.54 0.57 0.55 0.53 0.57 0.56 0.50 0.45 0.38 0.29 0.26 0.29 0.32 0.36 0.43 0.51 0.54 0.62 0.67 0.68 0.65 0.76 0.93 1.14 1.37 1.42
1.22 1.10 1.01 0.92 0.85 0.77 0.77 0.73 0.63 0.47 0.36 0.35 0.36 0.38 0.37 0.32 0.34 0.48 0.51 0.51 0.55 0.52 0.53 0.57 0.54 0.41 0.31 0.22 0.19 0.21 0.26 0.34 0.51 0.62 0.65 0.67 0.68 0.71 0.85 0.98 1.20 1.40 1.51
1.03 0.90 0.79 0.72 0.66 0.68 0.69 0.62 0.49 0.37 0.31 0.36 0.40 0.38 0.33 0.32 0.32 0.39 0.42 0.42 0.49 0.48 0.45 0.48 0.47 0.39 0.33 0.23 0.14 0.14 0.18 0.26 0.38 0.54 0.70 0.69 0.65 0.80 1.08 1.26 1.38 1.54 1.61
0.84 0.71 0.66 0.65 0.65 0.64 0.54 0.47 0.35 0.33 0.36 0.43 0.42 0.38 0.39 0.37 0.31 0.31 0.29 0.29 0.33 0.35 0.41 0.41 0.40 0.37 0.34 0.23 0.18 0.19 0.22 0.26 0.31 0.45 0.64 0.77 0.80 0.96 1.26 1.48 1.58 1.64 1.58
0.68 0.59 0.59 0.59 0.59 0.51 0.43 0.37 0.32 0.31 0.39 0.40 0.35 0.32 0.32 0.31 0.30 0.24 0.19 0.18 0.19 0.20 0.26 0.31 0.32 0.33 0.28 0.20 0.21 0.22 0.24 0.27 0.32 0.40 0.58 0.78 0.88 1.08 1.31 1.45 1.46 1.41 1.33
0.52 0.48 0.46 0.44 0.41 0.37 0.35 0.31 0.27 0.25 0.32 0.36 0.34 0.29 0.27 0.25 0.21 0.22 0.21 0.15 0.15 0.16 0.18 0.20 0.21 0.21 0.21 0.18 0.17 0.19 0.24 0.30 0.37 0.44 0.67 0.86 0.96 1.12 1.24 1.32 1.29 1.21 1.13

GEFSMW_prec_meanprecacc_222.txt.gz
Total_Precipitation_Accumulation
1.29 1.59 2.10 2.78 3.27 3.44 3.49 3.66 3.64 3.66 3.66 3.57 3.59 3.76 3.89 3.92 3.88 3.97 4.00 3.84 3.74 3.80 3.98 3.98 3.93 3.67 3.47 3.35 3.30 3.20 2.97 2.70 2.50 2.44 2.31 2.06 1.84 1.81 1.75 1.68 1.68 1.57 1.53
1.21 1.62 2.02 2.44 2.84 3.20 3.34 3.49 3.49 3.70 3.96 4.30 4.73 4.96 5.06 4.99 4.85 4.78 4.67 4.50 4.36 4.32 4.30 4.32 4.12 3.85 3.68 3.47 3.23 3.13 2.96 2.72 2.57 2.50 2.53 2.22 2.02 1.75 1.57 1.61 1.59 1.52 1.50
1.28 1.61 1.81 2.12 2.44 2.80 3.05 3.22 3.47 3.94 4.45 5.06 5.82 6.17 5.93 5.53 5.34 5.05 4.96 4.75 4.50 4.43 4.43 4.21 3.99 3.76 3.55 3.36 3.13 3.04 2.95 2.70 2.56 2.52 2.64 2.42 2.18 1.93 1.77 1.60 1.50 1.49 1.50
1.34 1.48 1.66 1.89 2.12 2.50 2.90 3.26 3.66 4.24 4.90 5.44 5.93 6.22 6.12 5.84 5.57 5.13 4.75 4.38 4.06 3.87 3.77 3.67 3.45 3.30 3.15 2.96 2.77 2.73 2.70 2.58 2.40 2.34 2.20 2.11 2.02 1.97 1.83 1.66 1.49 1.45 1.48
1.21 1.31 1.45 1.65 1.96 2.36 2.80 3.24 3.64 4.25 4.83 5.34 5.72 5.96 5.99 5.84 5.47 4.81 4.21 3.83 3.51 3.27 3.00 2.78 2.68 2.67 2.59 2.39 2.20 2.15 2.12 2.09 2.03 2.01 1.91 1.84 1.79 1.76 1.70 1.65 1.57 1.50 1.40
1.19 1.18 1.31 1.50 1.89 2.20 2.64 3.00 3.32 4.01 4.73 5.27 5.64 5.87 5.87 5.59 4.97 4.31 3.78 3.45 3.18 2.92 2.66 2.49 2.30 2.21 2.11 1.96 1.79 1.68 1.67 1.70 1.72 1.74 1.72 1.61 1.56 1.56 1.59 1.52 1.45 1.42 1.36
1.11 1.13 1.30 1.37 1.68 2.03 2.36 2.68 3.04 3.51 4.03 4.46 4.71 4.89 4.95 4.71 4.31 3.94 3.51 3.16 2.93 2.66 2.37 2.07 1.86 1.74 1.66 1.59 1.53 1.42 1.36 1.41 1.45 1.44 1.43 1.43 1.37 1.37 1.44 1.48 1.44 1.39 1.32
1.15 1.16 1.30 1.35 1.43 1.69 2.00 2.37 2.66 2.96 3.22 3.41 3.58 3.56 3.56 3.53 3.39 3.06 2.67 2.37 2.12 1.97 1.79 1.59 1.47 1.39 1.36 1.32 1.30 1.22 1.15 1.19 1.29 1.32 1.37 1.38 1.35 1.40 1.44 1.49 1.54 1.58 1.46
1.14 1.20 1.30 1.33 1.38 1.51 1.74 1.98 2.10 2.29 2.35 2.30 2.32 2.38 2.40 2.40 2.33 2.20 1.94 1.63 1.40 1.29 1.21 1.16 1.15 1.04 1.05 1.09 1.11 1.09 1.08 1.11 1.11 1.14 1.19 1.23 1.27 1.33 1.34 1.39 1.49 1.67 1.65
1.15 1.21 1.29 1.42 1.45 1.46 1.64 1.77 1.73 1.71 1.75 1.80 1.78 1.72 1.73 1.75 1.75 1.69 1.55 1.36 1.17 1.04 0.95 0.92 0.89 0.80 0.76 0.81 0.89 0.92 0.97 1.05 1.03 0.99 1.00 1.01 1.07 1.25 1.36 1.43 1.53 1.66 1.72
1.15 1.26 1.28 1.29 1.28 1.28 1.31 1.36 1.40 1.42 1.42 1.40 1.42 1.39 1.33 1.29 1.30 1.34 1.30 1.17 1.05 0.92 0.83 0.76 0.75 0.73 0.67 0.67 0.74 0.75 0.78 0.87 0.90 0.85 0.87 0.92 0.99 1.09 1.17 1.29 1.43 1.62 1.78
1.22 1.25 1.24 1.18 1.16 1.18 1.19 1.17 1.17 1.17 1.20 1.20 1.21 1.20 1.10 1.06 1.05 1.03 1.03 0.98 0.97 0.93 0.86 0.79 0.76 0.68 0.63 0.65 0.67 0.66 0.65 0.69 0.73 0.76 0.80 0.78 0.81 0.93 1.02 1.14 1.26 1.40 1.53
1.45 1.45 1.37 1.22 1.14 1.10 1.11 1.02 0.97 0.96 0.91 0.94 0.99 1.05 0.98 0.91 0.90 0.85 0.86 0.90 0.90 0.88 0.83 0.78 0.73 0.66 0.63 0.66 0.66 0.63 0.61 0.58 0.60 0.65 0.72 0.74 0.82 0.91 1.00 1.11 1.16 1.24 1.29
1.42 1.39 1.35 1.23 1.20 1.08 1.02 0.91 0.86 0.85 0.81 0.78 0.77 0.83 0.87 0.84 0.80 0.79 0.79 0.75 0.76 0.76 0.70 0.65 0.65 0.64 0.60 0.54 0.52 0.52 0.53 0.55 0.54 0.55 0.59 0.65 0.75 0.86 0.98 1.05 1.14 1.26 1.35
1.49 1.49 1.41 1.26 1.24 1.17 1.07 0.93 0.87 0.84 0.80 0.82 0.81 0.81 0.82 0.76 0.74 0.77 0.76 0.68 0.67 0.62 0.58 0.56 0.55 0.55 0.50 0.45 0.43 0.45 0.44 0.49 0.52 0.54 0.54 0.51 0.57 0.68 0.78 0.85 1.04 1.29 1.46
1.56 1.46 1.34 1.29 1.28 1.23 1.15 1.00 0.90 0.84 0.84 0.93 0.96 0.92 0.89 0.82 0.75 0.75 0.75 0.70 0.69 0.63 0.56 0.57 0.53 0.45 0.34 0.35 0.37 0.38 0.42 0.48 0.54 0.61 0.57 0.47 0.44 0.49 0.55 0.64 0.78 1.01 1.26
1.78 1.69 1.51 1.41 1.43 1.32 1.16 1.05 0.97 0.93 0.94 0.95 0.92 0.94 0.92 0.83 0.74 0.71 0.78 0.75 0.71 0.63 0.57 0.57 0.53 0.45 0.33 0.30 0.31 0.33 0.38 0.48 0.56 0.63 0.64 0.52 0.43 0.52 0.59 0.60 0.63 0.74 0.93
1.82 1.71 1.59 1.52 1.46 1.35 1.23 1.13 1.03 0.96 0.92 0.91 0.87 0.84 0.84 0.83 0.75 0.73 0.73 0.69 0.69 0.69 0.62 0.55 0.54 0.52 0.34 0.31 0.32 0.34 0.43 0.52 0.53 0.53 0.58 0.64 0.67 0.59 0.59 0.64 0.79 0.95 1.04
1.66 1.60 1.53 1.53 1.43 1.30 1.19 1.11 1.03 0.92 0.82 0.81 0.80 0.73 0.69 0.65 0.61 0.59 0.62 0.65 0.68 0.69 0.60 0.52 0.55 0.54 0.41 0.35 0.35 0.37 0.46 0.53 0.50 0.46 0.46 0.51 0.60 0.58 0.63 0.79 1.03 1.23 1.39
1.41 1.37 1.33 1.31 1.31 1.21 1.11 1.07 1.01 0.90 0.74 0.65 0.59 0.57 0.58 0.56 0.57 0.58 0.60 0.57 0.62 0.66 0.56 0.46 0.48 0.44 0.38 0.32 0.33 0.39 0.44 0.52 0.51 0.53 0.52 0.56 0.57 0.60 0.74 0.90 1.20 1.43 1.54
1.29 1.19 1.13 1.11 1.09 1.02 0.92 0.88 0.84 0.73 0.54 0.44 0.43 0.47 0.47 0.47 0.47 0.55 0.58 0.56 0.55 0.59 0.57 0.50 0.46 0.38 0.29 0.26 0.29 0.32 0.36 0.44 0.52 0.55 0.63 0.68 0.69 0.66 0.77 0.95 1.16 1.39 1.45
1.23 1.11 1.02 0.93 0.87 0.80 0.82 0.79 0.66 0.49 0.38 0.38 0.38 0.41 0.40 0.34 0.36 0.49 0.51 0.51 0.56 0.52 0.53 0.57 0.55 0.42 0.32 0.23 0.20 0.21 0.26 0.35 0.52 0.63 0.67 0.68 0.69 0.71 0.85 0.99 1.20 1.41 1.54
1.04 0.91 0.80 0.73 0.67 0.70 0.73 0.65 0.51 0.39 0.33 0.38 0.41 0.39 0.36 0.34 0.34 0.40 0.43 0.42 0.49 0.49 0.45 0.48 0.47 0.39 0.34 0.24 0.15 0.15 0.19 0.26 0.39 0.55 0.71 0.71 0.65 0.80 1.09 1.27 1.39 1.55 1.63
0.85 0.72 0.66 0.65 0.66 0.65 0.56 0.49 0.36 0.34 0.37 0.44 0.43 0.40 0.40 0.39 0.32 0.32 0.29 0.29 0.33 0.36 0.41 0.41 0.40 0.38 0.34 0.24 0.18 0.20 0.23 0.26 0.32 0.45 0.65 0.77 0.81 0.97 1.27 1.49 1.59 1.65 1.59
0.69 0.60 0.60 0.60 0.59 0.52 0.44 0.38 0.33 0.32 0.40 0.41 0.36 0.33 0.33 0.32 0.31 0.25 0.20 0.19 0.20 0.21 0.27 0.31 0.33 0.33 0.28 0.20 0.21 0.23 0.24 0.28 0.33 0.41 0.59 0.79 0.88 1.09 1.32 1.45 1.47 1.43 1.35
0.53 0.49 0.48 0.45 0.42 0.38 0.35 0.31 0.28 0.26 0.33 0.37 0.35 0.30 0.28 0.26 0.22 0.22 0.21 0.16 0.15 0.16 0.18 0.21 0.21 0.22 0.21 0.18 0.17 0.19 0.24 0.31 0.38 0.45 0.68 0.88 0.98 1.13 1.25 1.33 1.30 1.23 1.15

GEFSMW_prec_meanprecacc_228.txt.gz
Total_Precipitation_Accumulation
1.31 1.62 2.15 2.84 3.31 3.48 3.53 3.70 3.69 3.73 3.76 3.68 3.69 3.87 4.00 4.03 4.00 4.12 4.17 3.99 3.89 3.93 4.08 4.09 4.02 3.76 3.55 3.43 3.38 3.29 3.05 2.76 2.56 2.52 2.38 2.11 1.87 1.85 1.79 1.74 1.73 1.60 1.55
1.23 1.66 2.08 2.52 2.90 3.25 3.40 3.55 3.55 3.77 4.03 4.37 4.80 5.05 5.16 5.08 4.92 4.85 4.76 4.62 4.50 4.44 4.40 4.41 4.20 3.92 3.76 3.54 3.30 3.20 3.03 2.79 2.67 2.60 2.63 2.31 2.09 1.81 1.60 1.64 1.61 1.55 1.53
1.31 1.64 1.85 2.18 2.50 2.86 3.12 3.28 3.54 4.01 4.53 5.15 5.90 6.25 6.01 5.61 5.41 5.10 5.03 4.83 4.59 4.50 4.50 4.27 4.05 3.82 3.61 3.44 3.23 3.14 3.06 2.80 2.68 2.65 2.76 2.52 2.25 2.01 1.81 1.63 1.52 1.52 1.54
1.37 1.51 1.68 1.92 2.15 2.55 2.97 3.34 3.75 4.32 4.99 5.54 6.03 6.30 6.20 5.91 5.64 5.20 4.81 4.45 4.12 3.93 3.83 3.72 3.49 3.34 3.20 3.03 2.85 2.85 2.83 2.71 2.53 2.46 2.31 2.20 2.10 2.06 1.90 1.71 1.53 1.50 1.53
1.25 1.34 1.46 1.67 2.00 2.40 2.86 3.32 3.74 4.35 4.91 5.42 5.80 6.03 6.06 5.93 5.56 4.89 4.29 3.90 3.57 3.33 3.05 2.82 2.71 2.70 2.63 2.44 2.25 2.21 2.21 2.19 2.14 2.12 2.01 1.94 1.88 1.85 1.79 1.72 1.63 1.56 1.46
1.25 1.22 1.34 1.54 1.96 2.27 2.71 3.08 3.40 4.10 4.81 5.34 5.71 5.94 5.94 5.67 5.06 4.40 3.86 3.53 3.25 2.98 2.71 2.53 2.36 2.26 2.15 2.01 1.84 1.73 1.73 1.76 1.79 1.83 1.81 1.70 1.64 1.63 1.66 1.59 1.52 1.49 1.42
1.20 1.20 1.36 1.43 1.80 2.15 2.46 2.78 3.13 3.58 4.07 4.52 4.78 4.95 5.03 4.80 4.40 4.03 3.58 3.22 2.98 2.71 2.41 2.11 1.91 1.79 1.71 1.64 1.58 1.47 1.41 1.46 1.51 1.50 1.49 1.49 1.43 1.44 1.51 1.55 1.50 1.44 1.37
1.23 1.23 1.37 1.43 1.53 1.82 2.13 2.48 2.76 3.02 3.27 3.47 3.66 3.63 3.63 3.60 3.46 3.15 2.74 2.43 2.18 2.02 1.84 1.63 1.51 1.44 1.41 1.37 1.35 1.27 1.19 1.23 1.34 1.37 1.43 1.43 1.40 1.45 1.49 1.55 1.62 1.64 1.52
1.22 1.27 1.38 1.40 1.45 1.59 1.87 2.10 2.18 2.36 2.41 2.37 2.40 2.45 2.47 2.47 2.41 2.28 2.02 1.70 1.46 1.35 1.28 1.22 1.20 1.08 1.09 1.14 1.16 1.14 1.12 1.16 1.16 1.19 1.25 1.29 1.33 1.40 1.40 1.46 1.57 1.75 1.73
1.22 1.27 1.34 1.47 1.52 1.53 1.72 1.84 1.79 1.77 1.82 1.87 1.85 1.78 1.81 1.83 1.83 1.76 1.60 1.41 1.23 1.10 1.01 0.97 0.93 0.84 0.79 0.85 0.93 0.96 1.01 1.09 1.07 1.04 1.07 1.09 1.15 1.33 1.44 1.51 1.61 1.75 1.81
1.25 1.33 1.32 1.33 1.35 1.36 1.37 1.42 1.45 1.49 1.48 1.47 1.49 1.46 1.40 1.37 1.37 1.40 1.36 1.22 1.10 0.98 0.87 0.79 0.79 0.77 0.71 0.70 0.78 0.79 0.83 0.93 0.95 0.90 0.93 0.97 1.05 1.16 1.23 1.36 1.50 1.69 1.85
1.33 1.31 1.28 1.21 1.22 1.26 1.26 1.21 1.23 1.24 1.26 1.27 1.27 1.28 1.17 1.13 1.12 1.08 1.08 1.04 1.02 0.97 0.90 0.83 0.79 0.72 0.66 0.68 0.70 0.70 0.69 0.74 0.78 0.81 0.85 0.82 0.87 0.99 1.09 1.21 1.32 1.47 1.61
1.53 1.51 1.42 1.26 1.20 1.19 1.19 1.08 1.03 1.02 0.97 1.00 1.06 1.13 1.07 0.99 0.97 0.91 0.91 0.95 0.95 0.93 0.87 0.82 0.76 0.69 0.67 0.69 0.69 0.66 0.65 0.62 0.64 0.70 0.77 0.80 0.89 0.99 1.08 1.19 1.23 1.31 1.36
1.50 1.47 1.41 1.29 1.28 1.17 1.09 0.97 0.92 0.92 0.89 0.85 0.84 0.90 0.94 0.90 0.85 0.84 0.84 0.81 0.80 0.80 0.74 0.68 0.68 0.67 0.62 0.57 0.55 0.55 0.57 0.59 0.59 0.60 0.65 0.72 0.85 0.95 1.07 1.13 1.21 1.33 1.43
1.54 1.54 1.47 1.32 1.31 1.26 1.14 0.99 0.91 0.90 0.89 0.90 0.88 0.86 0.86 0.80 0.79 0.82 0.82 0.74 0.71 0.65 0.61 0.59 0.58 0.57 0.53 0.47 0.46 0.50 0.50 0.56 0.60 0.62 0.61 0.59 0.65 0.77 0.85 0.92 1.11 1.36 1.53
1.59 1.49 1.39 1.34 1.34 1.30 1.21 1.04 0.95 0.88 0.89 0.99 1.01 0.96 0.93 0.87 0.81 0.82 0.83 0.76 0.74 0.68 0.59 0.61 0.57 0.49 0.37 0.38 0.40 0.42 0.46 0.53 0.58 0.66 0.63 0.54 0.51 0.54 0.60 0.69 0.83 1.06 1.30
1.80 1.71 1.54 1.45 1.48 1.38 1.22 1.10 1.03 0.98 0.98 0.98 0.95 0.97 0.95 0.87 0.80 0.77 0.85 0.83 0.79 0.69 0.62 0.61 0.57 0.49 0.38 0.35 0.35 0.37 0.42 0.52 0.61 0.70 0.72 0.58 0.47 0.56 0.64 0.66 0.66 0.76 0.95
1.83 1.73 1.61 1.55 1.50 1.42 1.32 1.21 1.09 1.00 0.97 0.95 0.90 0.87 0.86 0.86 0.80 0.78 0.81 0.79 0.78 0.75 0.67 0.59 0.58 0.57 0.39 0.36 0.36 0.38 0.46 0.56 0.58 0.60 0.65 0.71 0.73 0.63 0.62 0.67 0.82 0.98 1.06
1.68 1.62 1.56 1.57 1.47 1.36 1.28 1.18 1.08 0.96 0.86 0.84 0.83 0.76 0.71 0.68 0.65 0.64 0.68 0.75 0.76 0.75 0.66 0.57 0.60 0.60 0.46 0.39 0.39 0.41 0.50 0.58 0.56 0.51 0.51 0.55 0.63 0.61 0.66 0.82 1.06 1.26 1.42
1.43 1.39 1.35 1.35 1.35 1.26 1.18 1.16 1.08 0.95 0.78 0.68 0.62 0.59 0.61 0.58 0.59 0.62 0.65 0.62 0.66 0.70 0.60 0.52 0.55 0.51 0.43 0.37 0.37 0.42 0.47 0.56 0.55 0.56 0.54 0.58 0.59 0.61 0.76 0.93 1.23 1.45 1.56
1.31 1.21 1.16 1.14 1.13 1.06 0.98 0.96 0.92 0.80 0.59 0.48 0.46 0.49 0.49 0.49 0.49 0.58 0.62 0.60 0.59 0.63 0.61 0.55 0.51 0.44 0.34 0.31 0.33 0.36 0.39 0.46 0.54 0.57 0.64 0.69 0.70 0.67 0.78 0.96 1.19 1.41 1.48
1.24 1.13 1.05 0.96 0.90 0.84 0.87 0.85 0.72 0.55 0.44 0.43 0.42 0.43 0.42 0.36 0.37 0.51 0.55 0.55 0.61 0.58 0.57 0.61 0.58 0.44 0.34 0.26 0.22 0.24 0.28 0.36 0.54 0.64 0.68 0.70 0.71 0.72 0.86 1.00 1.22 1.43 1.56
1.06 0.94 0.84 0.76 0.70 0.74 0.78 0.71 0.56 0.43 0.39 0.43 0.47 0.43 0.38 0.36 0.35 0.42 0.45 0.46 0.54 0.52 0.48 0.51 0.49 0.41 0.35 0.26 0.16 0.16 0.20 0.28 0.40 0.57 0.73 0.72 0.67 0.82 1.11 1.28 1.41 1.57 1.65
0.87 0.75 0.71 0.68 0.69 0.68 0.59 0.52 0.40 0.36 0.40 0.48 0.49 0.45 0.43 0.40 0.33 0.33 0.31 0.31 0.35 0.37 0.43 0.43 0.42 0.39 0.36 0.25 0.19 0.21 0.23 0.28 0.33 0.47 0.66 0.79 0.83 0.99 1.28 1.51 1.62 1.68 1.62
0.71 0.62 0.65 0.64 0.61 0.53 0.47 0.40 0.35 0.34 0.44 0.46 0.42 0.38 0.36 0.34 0.32 0.26 0.21 0.20 0.21 0.22 0.29 0.33 0.34 0.34 0.29 0.21 0.21 0.23 0.25 0.29 0.34 0.42 0.61 0.81 0.91 1.11 1.34 1.48 1.50 1.46 1.38
0.55 0.51 0.51 0.49 0.44 0.40 0.38 0.33 0.29 0.28 0.37 0.40 0.38 0.32 0.30 0.28 0.24 0.24 0.22 0.17 0.16 0.18 0.19 0.21 0.22 0.22 0.21 0.19 0.18 0.19 0.25 0.31 0.38 0.45 0.69 0.90 1.00 1.15 1.27 1.35 1.33 1.26 1.19

GEFSMW_prec_meanprecacc_234.txt.gz
Total_Precipitation_Accumulation
1.38 1.71 2.22 2.90 3.37 3.57 3.65 3.79 3.75 3.77 3.78 3.70 3.72 3.93 4.08 4.09 4.06 4.20 4.25 4.06 3.95 4.02 4.22 4.23 4.14 3.83 3.59 3.46 3.42 3.35 3.12 2.84 2.64 2.60 2.46 2.18 1.94 1.91 1.84 1.78 1.77 1.64 1.59
1.31 1.75 2.16 2.61 2.97 3.33 3.49 3.63 3.60 3.81 4.06 4.40 4.84 5.10 5.22 5.15 4.99 4.91 4.82 4.67 4.56 4.58 4.62 4.61 4.30 3.97 3.80 3.58 3.34 3.24 3.08 2.84 2.73 2.66 2.68 2.35 2.13 1.84 1.63 1.68 1.65 1.58 1.56
1.35 1.71 1.93 2.30 2.59 2.93 3.19 3.35 3.59 4.06 4.58 5.21 5.98 6.32 6.07 5.69 5.47 5.15 5.08 4.89 4.67 4.62 4.63 4.36 4.09 3.85 3.65 3.49 3.28 3.18 3.10 2.85 2.74 2.72 2.82 2.55 2.28 2.03 1.84 1.66 1.56 1.56 1.58
1.41 1.58 1.80 2.05 2.24 2.61 3.04 3.41 3.82 4.41 5.07 5.62 6.12 6.36 6.25 5.98 5.70 5.25 4.87 4.51 4.20 4.01 3.89 3.77 3.52 3.38 3.25 3.09 2.92 2.92 2.89 2.77 2.58 2.52 2.36 2.24 2.13 2.08 1.92 1.74 1.57 1.54 1.57
1.32 1.44 1.62 1.85 2.13 2.51 2.94 3.40 3.85 4.46 5.00 5.52 5.89 6.11 6.13 5.99 5.61 4.94 4.33 3.96 3.63 3.39 3.12 2.89 2.78 2.77 2.70 2.50 2.31 2.28 2.28 2.25 2.20 2.17 2.05 1.97 1.91 1.87 1.81 1.75 1.67 1.60 1.50
1.46 1.45 1.52 1.69 2.11 2.44 2.86 3.19 3.55 4.22 4.92 5.44 5.78 6.02 6.00 5.72 5.10 4.43 3.89 3.56 3.29 3.03 2.76 2.59 2.42 2.34 2.23 2.06 1.89 1.79 1.77 1.81 1.84 1.88 1.87 1.75 1.69 1.67 1.70 1.62 1.54 1.52 1.45
1.38 1.39 1.57 1.69 2.15 2.44 2.62 2.90 3.24 3.70 4.20 4.62 4.87 5.02 5.07 4.83 4.43 4.06 3.60 3.25 3.02 2.76 2.45 2.16 1.96 1.85 1.78 1.70 1.64 1.52 1.45 1.50 1.54 1.53 1.53 1.53 1.48 1.49 1.56 1.61 1.54 1.47 1.40
1.32 1.34 1.55 1.72 1.81 2.01 2.28 2.60 2.86 3.14 3.38 3.56 3.73 3.69 3.66 3.62 3.48 3.17 2.76 2.45 2.21 2.06 1.89 1.69 1.57 1.51 1.50 1.44 1.40 1.31 1.22 1.26 1.37 1.41 1.47 1.46 1.44 1.51 1.56 1.62 1.69 1.69 1.55
1.29 1.37 1.53 1.61 1.60 1.69 2.00 2.21 2.28 2.45 2.49 2.45 2.45 2.48 2.50 2.49 2.43 2.31 2.04 1.72 1.49 1.39 1.33 1.28 1.26 1.15 1.15 1.18 1.19 1.16 1.15 1.19 1.19 1.23 1.29 1.33 1.38 1.46 1.48 1.53 1.64 1.82 1.78
1.26 1.33 1.44 1.57 1.59 1.60 1.80 1.92 1.85 1.82 1.88 1.94 1.89 1.81 1.83 1.85 1.86 1.80 1.63 1.44 1.27 1.15 1.06 1.02 0.99 0.89 0.84 0.88 0.96 0.99 1.04 1.13 1.11 1.07 1.09 1.12 1.18 1.37 1.49 1.56 1.66 1.80 1.86
1.30 1.39 1.37 1.38 1.40 1.41 1.41 1.46 1.49 1.52 1.52 1.50 1.51 1.48 1.42 1.40 1.41 1.44 1.40 1.26 1.15 1.03 0.91 0.84 0.84 0.82 0.76 0.75 0.82 0.83 0.87 0.97 0.99 0.94 0.96 1.00 1.08 1.19 1.28 1.40 1.54 1.72 1.88
1.40 1.42 1.36 1.26 1.27 1.34 1.31 1.25 1.26 1.27 1.28 1.30 1.30 1.30 1.20 1.16 1.15 1.13 1.13 1.08 1.06 1.01 0.93 0.87 0.83 0.76 0.71 0.73 0.75 0.74 0.72 0.78 0.82 0.84 0.90 0.86 0.89 1.02 1.12 1.25 1.35 1.50 1.64
1.59 1.58 1.47 1.29 1.23 1.26 1.27 1.12 1.06 1.06 1.00 1.03 1.09 1.17 1.10 1.02 1.00 0.96 0.95 1.00 0.99 0.96 0.91 0.86 0.80 0.73 0.71 0.74 0.74 0.69 0.68 0.65 0.66 0.74 0.83 0.87 0.95 1.03 1.12 1.25 1.29 1.37 1.42
1.55 1.52 1.46 1.32 1.30 1.23 1.19 1.02 0.95 0.96 0.93 0.88 0.88 0.95 0.99 0.96 0.91 0.90 0.89 0.85 0.83 0.83 0.77 0.72 0.72 0.72 0.67 0.61 0.59 0.58 0.60 0.63 0.63 0.65 0.70 0.77 0.90 1.02 1.16 1.21 1.29 1.41 1.51
1.55 1.59 1.53 1.35 1.34 1.31 1.24 1.06 0.95 0.94 0.92 0.93 0.91 0.90 0.91 0.86 0.85 0.88 0.86 0.77 0.74 0.68 0.64 0.62 0.62 0.62 0.58 0.52 0.52 0.54 0.54 0.62 0.66 0.68 0.66 0.63 0.70 0.83 0.93 1.00 1.19 1.44 1.60
1.61 1.52 1.43 1.37 1.38 1.36 1.28 1.12 1.01 0.93 0.92 1.01 1.04 0.98 0.97 0.91 0.86 0.86 0.85 0.78 0.77 0.71 0.62 0.64 0.61 0.53 0.43 0.45 0.46 0.47 0.51 0.58 0.64 0.72 0.70 0.59 0.57 0.60 0.66 0.74 0.88 1.11 1.36
1.82 1.72 1.56 1.48 1.52 1.45 1.28 1.18 1.07 1.01 0.99 1.00 0.97 0.99 0.99 0.91 0.83 0.79 0.87 0.85 0.82 0.73 0.66 0.65 0.62 0.55 0.45 0.42 0.40 0.41 0.45 0.55 0.65 0.75 0.77 0.64 0.53 0.62 0.69 0.70 0.71 0.80 0.98
1.84 1.73 1.62 1.57 1.53 1.47 1.38 1.28 1.14 1.03 0.98 0.96 0.91 0.89 0.89 0.90 0.83 0.81 0.84 0.83 0.83 0.81 0.71 0.64 0.65 0.64 0.46 0.42 0.40 0.41 0.49 0.59 0.62 0.64 0.70 0.75 0.76 0.66 0.65 0.70 0.84 0.99 1.07
1.69 1.63 1.57 1.59 1.50 1.41 1.33 1.23 1.11 0.98 0.87 0.86 0.85 0.78 0.73 0.70 0.68 0.68 0.71 0.79 0.82 0.82 0.71 0.64 0.69 0.66 0.51 0.42 0.41 0.42 0.51 0.60 0.59 0.54 0.53 0.57 0.65 0.62 0.67 0.83 1.07 1.27 1.43
1.45 1.41 1.37 1.37 1.38 1.30 1.23 1.20 1.11 0.97 0.80 0.69 0.64 0.62 0.63 0.61 0.62 0.65 0.69 0.69 0.75 0.77 0.66 0.59 0.60 0.55 0.45 0.39 0.38 0.43 0.48 0.57 0.55 0.57 0.56 0.60 0.61 0.62 0.77 0.94 1.24 1.47 1.58
1.32 1.22 1.17 1.16 1.15 1.09 1.01 1.00 0.95 0.84 0.62 0.51 0.49 0.52 0.52 0.51 0.51 0.60 0.65 0.65 0.64 0.68 0.67 0.59 0.53 0.45 0.35 0.31 0.34 0.38 0.40 0.47 0.54 0.57 0.66 0.72 0.73 0.69 0.79 0.98 1.21 1.43 1.50
1.27 1.14 1.06 0.97 0.91 0.85 0.89 0.88 0.74 0.57 0.46 0.44 0.44 0.45 0.44 0.38 0.39 0.53 0.56 0.57 0.63 0.60 0.60 0.63 0.59 0.45 0.35 0.26 0.23 0.25 0.29 0.36 0.55 0.65 0.69 0.72 0.74 0.75 0.87 1.01 1.23 1.44 1.57
1.10 0.96 0.85 0.77 0.71 0.75 0.80 0.74 0.58 0.45 0.40 0.45 0.48 0.44 0.39 0.37 0.36 0.42 0.45 0.47 0.55 0.53 0.48 0.52 0.50 0.41 0.35 0.26 0.16 0.17 0.21 0.28 0.40 0.57 0.73 0.73 0.68 0.83 1.12 1.29 1.42 1.58 1.66
0.90 0.78 0.74 0.70 0.70 0.69 0.62 0.56 0.42 0.37 0.41 0.49 0.50 0.46 0.44 0.41 0.34 0.33 0.32 0.32 0.35 0.38 0.44 0.44 0.43 0.40 0.36 0.25 0.19 0.21 0.24 0.28 0.33 0.47 0.66 0.79 0.83 1.00 1.30 1.52 1.63 1.69 1.63
0.72 0.64 0.68 0.66 0.62 0.55 0.49 0.43 0.36 0.36 0.45 0.47 0.43 0.39 0.37 0.35 0.33 0.27 0.22 0.21 0.22 0.23 0.30 0.34 0.35 0.35 0.30 0.21 0.22 0.23 0.25 0.29 0.35 0.42 0.61 0.82 0.92 1.12 1.35 1.49 1.51 1.47 1.39
0.57 0.53 0.55 0.51 0.46 0.41 0.40 0.35 0.30 0.30 0.39 0.41 0.40 0.34 0.31 0.28 0.25 0.24 0.23 0.17 0.17 0.18 0.20 0.22 0.23 0.23 0.23 0.19 0.18 0.20 0.25 0.32 0.39 0.46 0.70 0.91 1.01 1.16 1.28 1.37 1.34 1.27 1.20

GEFSMW_prec_meanprecacc_240.txt.gz
Total_Precipitation_Accumulation
1.43 1.78 2.29 3.01 3.46 3.63 3.71 3.85 3.81 3.86 3.86 3.78 3.80 4.01 4.15 4.16 4.13 4.27 4.33 4.15 4.04 4.11 4.35 4.36 4.26 3.96 3.68 3.51 3.45 3.38 3.15 2.87 2.68 2.66 2.51 2.23 2.00 1.96 1.89 1.84 1.82 1.67 1.61
1.35 1.81 2.27 2.71 3.04 3.39 3.55 3.69 3.68 3.90 4.15 4.51 4.98 5.24 5.35 5.24 5.06 4.98 4.90 4.76 4.65 4.66 4.72 4.70 4.38 4.04 3.86 3.61 3.36 3.26 3.12 2.88 2.77 2.71 2.74 2.41 2.19 1.89 1.67 1.72 1.71 1.63 1.60
1.40 1.77 2.02 2.38 2.66 3.00 3.26 3.44 3.71 4.18 4.71 5.36 6.13 6.43 6.17 5.76 5.55 5.23 5.16 4.97 4.74 4.69 4.72 4.43 4.14 3.91 3.71 3.53 3.32 3.23 3.15 2.89 2.78 2.78 2.89 2.62 2.33 2.07 1.88 1.70 1.61 1.60 1.61
1.44 1.63 1.87 2.14 2.34 2.71 3.14 3.54 3.97 4.58 5.24 5.79 6.25 6.46 6.32 6.05 5.78 5.33 4.96 4.59 4.27 4.07 3.95 3.83 3.58 3.44 3.32 3.16 2.99 2.99 2.94 2.82 2.62 2.55 2.40 2.29 2.18 2.14 1.98 1.78 1.61 1.57 1.60
1.33 1.46 1.66 1.92 2.24 2.65 3.12 3.59 4.04 4.70 5.20 5.67 6.00 6.21 6.22 6.11 5.73 5.04 4.43 4.03 3.69 3.44 3.17 2.93 2.81 2.81 2.76 2.56 2.37 2.35 2.34 2.31 2.24 2.21 2.09 2.02 1.96 1.91 1.85 1.79 1.71 1.64 1.53
1.48 1.48 1.56 1.74 2.17 2.57 3.06 3.40 3.73 4.41 5.08 5.56 5.88 6.12 6.09 5.84 5.21 4.52 3.98 3.64 3.34 3.07 2.79 2.62 2.45 2.37 2.27 2.12 1.95 1.86 1.84 1.86 1.89 1.93 1.93 1.81 1.74 1.71 1.74 1.65 1.57 1.56 1.50
1.41 1.43 1.63 1.75 2.22 2.58 2.87 3.15 3.40 3.79 4.28 4.70 4.96 5.13 5.16 4.94 4.52 4.12 3.67 3.29 3.04 2.78 2.48 2.18 1.99 1.89 1.83 1.76 1.71 1.60 1.54 1.57 1.61 1.58 1.58 1.58 1.53 1.54 1.62 1.67 1.58 1.50 1.43
1.36 1.38 1.60 1.78 1.90 2.12 2.39 2.70 2.94 3.19 3.43 3.63 3.80 3.75 3.73 3.71 3.54 3.21 2.79 2.47 2.22 2.07 1.91 1.71 1.59 1.54 1.55 1.52 1.48 1.38 1.29 1.33 1.43 1.46 1.51 1.50 1.47 1.55 1.60 1.66 1.73 1.73 1.58
1.31 1.40 1.56 1.65 1.68 1.80 2.06 2.24 2.32 2.51 2.57 2.53 2.51 2.54 2.56 2.56 2.47 2.33 2.07 1.73 1.50 1.40 1.35 1.32 1.29 1.18 1.19 1.24 1.25 1.22 1.21 1.24 1.24 1.27 1.34 1.38 1.42 1.51 1.52 1.57 1.68 1.86 1.82
1.27 1.35 1.46 1.59 1.64 1.68 1.88 1.97 1.89 1.88 1.93 1.99 1.94 1.86 1.89 1.90 1.89 1.82 1.66 1.45 1.28 1.16 1.08 1.05 1.02 0.92 0.88 0.93 1.01 1.05 1.11 1.19 1.16 1.13 1.16 1.19 1.24 1.42 1.53 1.61 1.71 1.85 1.90
1.31 1.40 1.39 1.39 1.42 1.46 1.47 1.53 1.54 1.56 1.55 1.53 1.54 1.53 1.48 1.43 1.43 1.46 1.42 1.27 1.16 1.04 0.93 0.86 0.87 0.86 0.79 0.78 0.85 0.88 0.93 1.03 1.06 1.01 1.03 1.07 1.14 1.24 1.32 1.45 1.57 1.76 1.93
1.43 1.44 1.38 1.28 1.29 1.37 1.36 1.31 1.31 1.31 1.32 1.33 1.34 1.37 1.25 1.18 1.17 1.15 1.15 1.09 1.07 1.03 0.96 0.90 0.87 0.80 0.74 0.76 0.78 0.77 0.75 0.82 0.88 0.91 0.95 0.90 0.93 1.05 1.15 1.27 1.37 1.52 1.67
1.61 1.60 1.49 1.31 1.24 1.28 1.29 1.15 1.09 1.09 1.04 1.05 1.13 1.21 1.13 1.05 1.03 0.99 0.98 1.02 1.01 0.99 0.95 0.91 0.84 0.76 0.74 0.76 0.76 0.72 0.70 0.68 0.69 0.78 0.87 0.89 0.98 1.05 1.14 1.26 1.31 1.39 1.44
1.57 1.57 1.51 1.34 1.31 1.24 1.21 1.05 0.98 0.98 0.94 0.90 0.89 0.96 1.00 0.98 0.93 0.93 0.92 0.87 0.86 0.85 0.80 0.75 0.74 0.73 0.68 0.63 0.61 0.60 0.62 0.65 0.66 0.68 0.72 0.79 0.93 1.05 1.18 1.24 1.31 1.44 1.54
1.59 1.64 1.56 1.37 1.35 1.32 1.27 1.08 0.97 0.94 0.93 0.94 0.92 0.91 0.92 0.87 0.87 0.90 0.88 0.80 0.76 0.70 0.66 0.64 0.64 0.63 0.60 0.54 0.53 0.57 0.57 0.65 0.69 0.71 0.70 0.67 0.74 0.87 0.97 1.03 1.23 1.49 1.67
1.64 1.58 1.46 1.39 1.39 1.37 1.30 1.14 1.02 0.94 0.93 1.02 1.04 1.00 0.98 0.92 0.87 0.87 0.87 0.80 0.79 0.74 0.65 0.66 0.63 0.56 0.45 0.47 0.49 0.51 0.56 0.62 0.68 0.76 0.74 0.64 0.62 0.65 0.71 0.79 0.93 1.17 1.44
1.83 1.74 1.58 1.49 1.53 1.46 1.29 1.21 1.09 1.02 1.01 1.01 0.98 1.01 1.02 0.93 0.84 0.80 0.89 0.87 0.84 0.75 0.68 0.67 0.63 0.56 0.47 0.45 0.44 0.45 0.49 0.59 0.68 0.77 0.79 0.66 0.57 0.66 0.74 0.75 0.75 0.84 1.04
1.85 1.74 1.64 1.60 1.55 1.49 1.40 1.31 1.15 1.04 0.99 0.98 0.92 0.90 0.92 0.92 0.85 0.82 0.85 0.83 0.84 0.82 0.73 0.66 0.67 0.66 0.48 0.45 0.44 0.45 0.52 0.62 0.65 0.67 0.72 0.77 0.78 0.68 0.69 0.74 0.88 1.03 1.11
1.70 1.63 1.58 1.60 1.51 1.43 1.36 1.27 1.14 1.02 0.90 0.87 0.85 0.79 0.74 0.73 0.71 0.70 0.73 0.81 0.84 0.83 0.73 0.66 0.71 0.68 0.53 0.45 0.44 0.46 0.54 0.63 0.62 0.56 0.55 0.58 0.66 0.64 0.69 0.85 1.09 1.29 1.45
1.45 1.41 1.37 1.38 1.39 1.31 1.25 1.23 1.15 1.01 0.84 0.71 0.65 0.63 0.64 0.63 0.65 0.68 0.72 0.71 0.77 0.79 0.68 0.61 0.63 0.58 0.48 0.42 0.41 0.46 0.51 0.59 0.58 0.60 0.58 0.62 0.62 0.64 0.79 0.96 1.26 1.49 1.60
1.32 1.23 1.17 1.17 1.16 1.10 1.02 1.02 0.98 0.86 0.64 0.53 0.50 0.53 0.53 0.52 0.52 0.61 0.66 0.66 0.65 0.70 0.69 0.61 0.56 0.49 0.39 0.35 0.38 0.40 0.42 0.48 0.55 0.59 0.67 0.73 0.74 0.70 0.80 0.99 1.22 1.45 1.51
1.27 1.15 1.07 0.98 0.92 0.86 0.90 0.89 0.76 0.58 0.47 0.45 0.45 0.46 0.45 0.38 0.39 0.54 0.57 0.58 0.64 0.62 0.61 0.65 0.61 0.47 0.37 0.28 0.25 0.27 0.30 0.37 0.56 0.66 0.70 0.73 0.75 0.75 0.88 1.02 1.24 1.46 1.59
1.10 0.97 0.86 0.78 0.72 0.76 0.80 0.75 0.59 0.46 0.41 0.45 0.49 0.45 0.39 0.38 0.37 0.43 0.46 0.48 0.56 0.54 0.50 0.54 0.52 0.43 0.37 0.27 0.18 0.18 0.22 0.29 0.41 0.58 0.74 0.75 0.71 0.85 1.12 1.30 1.44 1.60 1.68
0.90 0.79 0.75 0.71 0.71 0.70 0.62 0.56 0.43 0.38 0.42 0.50 0.50 0.46 0.44 0.41 0.34 0.34 0.32 0.33 0.36 0.39 0.45 0.46 0.44 0.41 0.37 0.26 0.20 0.22 0.25 0.29 0.35 0.48 0.68 0.83 0.89 1.04 1.32 1.54 1.65 1.71 1.65
0.73 0.65 0.69 0.67 0.64 0.56 0.50 0.44 0.38 0.37 0.46 0.47 0.43 0.40 0.38 0.36 0.33 0.27 0.22 0.21 0.23 0.25 0.31 0.35 0.37 0.37 0.31 0.22 0.23 0.24 0.26 0.29 0.36 0.44 0.64 0.85 0.97 1.16 1.38 1.52 1.54 1.50 1.42
0.57 0.53 0.56 0.54 0.48 0.43 0.41 0.36 0.31 0.30 0.39 0.42 0.40 0.34 0.32 0.29 0.25 0.25 0.23 0.18 0.18 0.19 0.21 0.23 0.24 0.24 0.24 0.20 0.19 0.21 0.26 0.33 0.41 0.48 0.71 0.92 1.04 1.19 1.31 1.41 1.38 1.31 1.24

GEFSMW_prec_meanprecacc_246.txt.gz
Total_Precipitation_Accumulation
1.46 1.82 2.36 3.06 3.50 3.67 3.74 3.88 3.84 3.88 3.90 3.82 3.84 4.04 4.20 4.22 4.20 4.33 4.38 4.21 4.10 4.17 4.41 4.44 4.35 4.07 3.78 3.58 3.50 3.43 3.21 2.93 2.75 2.74 2.58 2.29 2.04 2.00 1.92 1.87 1.85 1.70 1.63
1.37 1.83 2.31 2.79 3.10 3.43 3.59 3.72 3.71 3.93 4.18 4.53 5.00 5.27 5.39 5.31 5.13 5.04 4.95 4.82 4.71 4.73 4.79 4.78 4.47 4.16 3.98 3.71 3.45 3.34 3.19 2.95 2.84 2.79 2.83 2.50 2.27 1.95 1.70 1.75 1.74 1.67 1.65
1.41 1.79 2.05 2.42 2.70 3.04 3.31 3.50 3.76 4.22 4.74 5.39 6.16 6.46 6.21 5.82 5.61 5.29 5.22 5.02 4.79 4.74 4.76 4.48 4.21 3.99 3.82 3.64 3.42 3.33 3.24 2.97 2.85 2.87 3.02 2.75 2.43 2.15 1.93 1.73 1.64 1.65 1.68
1.44 1.64 1.89 2.16 2.37 2.74 3.18 3.59 4.03 4.62 5.27 5.82 6.28 6.50 6.37 6.11 5.83 5.39 5.02 4.64 4.31 4.12 4.00 3.88 3.63 3.49 3.38 3.23 3.06 3.05 3.02 2.91 2.70 2.63 2.49 2.41 2.27 2.22 2.05 1.83 1.66 1.63 1.66
1.34 1.48 1.67 1.94 2.26 2.68 3.14 3.63 4.09 4.75 5.24 5.70 6.04 6.24 6.26 6.14 5.77 5.10 4.48 4.08 3.75 3.49 3.22 2.99 2.87 2.86 2.80 2.61 2.42 2.40 2.39 2.38 2.31 2.27 2.15 2.08 2.02 1.98 1.92 1.86 1.78 1.71 1.59
1.49 1.50 1.58 1.76 2.20 2.59 3.08 3.42 3.76 4.45 5.12 5.59 5.92 6.16 6.12 5.88 5.25 4.56 4.03 3.69 3.40 3.12 2.86 2.70 2.51 2.41 2.30 2.15 1.98 1.91 1.90 1.93 1.94 1.98 1.98 1.86 1.80 1.77 1.81 1.73 1.66 1.63 1.56
1.42 1.45 1.65 1.77 2.25 2.61 2.90 3.17 3.41 3.81 4.31 4.73 5.01 5.18 5.22 5.01 4.58 4.16 3.71 3.35 3.10 2.83 2.52 2.22 2.03 1.92 1.86 1.79 1.75 1.66 1.59 1.64 1.66 1.63 1.62 1.62 1.58 1.60 1.68 1.74 1.66 1.57 1.49
1.37 1.40 1.62 1.83 1.97 2.19 2.43 2.73 2.96 3.21 3.46 3.66 3.84 3.81 3.80 3.78 3.59 3.25 2.84 2.53 2.27 2.12 1.96 1.75 1.63 1.58 1.59 1.55 1.51 1.42 1.33 1.38 1.49 1.52 1.58 1.55 1.52 1.60 1.66 1.72 1.80 1.79 1.63
1.33 1.42 1.60 1.72 1.78 1.89 2.10 2.28 2.36 2.55 2.61 2.57 2.56 2.61 2.61 2.61 2.51 2.37 2.10 1.77 1.54 1.43 1.38 1.35 1.32 1.21 1.22 1.27 1.27 1.24 1.23 1.27 1.29 1.32 1.40 1.45 1.48 1.56 1.56 1.62 1.74 1.92 1.87
1.29 1.37 1.50 1.64 1.72 1.75 1.94 2.02 1.94 1.94 1.99 2.03 1.98 1.90 1.92 1.93 1.92 1.85 1.68 1.48 1.32 1.20 1.11 1.08 1.04 0.94 0.90 0.95 1.04 1.07 1.13 1.23 1.20 1.17 1.21 1.25 1.31 1.49 1.59 1.65 1.75 1.90 1.96
1.33 1.42 1.41 1.41 1.45 1.49 1.53 1.59 1.58 1.60 1.58 1.56 1.58 1.55 1.50 1.45 1.45 1.48 1.44 1.30 1.19 1.07 0.96 0.89 0.89 0.88 0.82 0.80 0.88 0.91 0.96 1.06 1.09 1.05 1.07 1.12 1.21 1.31 1.38 1.49 1.62 1.81 1.97
1.44 1.46 1.40 1.29 1.30 1.41 1.41 1.37 1.35 1.34 1.35 1.36 1.37 1.40 1.27 1.20 1.19 1.17 1.17 1.11 1.09 1.05 0.99 0.93 0.91 0.83 0.77 0.79 0.80 0.79 0.79 0.85 0.91 0.94 0.99 0.94 0.99 1.12 1.22 1.33 1.42 1.55 1.70
1.63 1.63 1.52 1.33 1.26 1.32 1.33 1.20 1.14 1.14 1.07 1.09 1.16 1.23 1.15 1.06 1.05 1.01 1.01 1.04 1.03 1.01 0.96 0.92 0.85 0.78 0.76 0.79 0.78 0.75 0.74 0.72 0.73 0.81 0.90 0.93 1.02 1.10 1.20 1.33 1.36 1.44 1.48
1.60 1.63 1.57 1.37 1.35 1.28 1.24 1.09 1.03 1.02 0.97 0.93 0.92 0.98 1.02 0.99 0.96 0.96 0.95 0.91 0.88 0.87 0.82 0.77 0.75 0.74 0.70 0.65 0.63 0.63 0.65 0.69 0.70 0.73 0.77 0.83 0.97 1.09 1.23 1.29 1.37 1.49 1.59
1.61 1.68 1.61 1.39 1.38 1.36 1.31 1.12 0.99 0.97 0.95 0.96 0.93 0.92 0.94 0.89 0.89 0.93 0.92 0.82 0.79 0.73 0.69 0.66 0.65 0.65 0.61 0.56 0.57 0.60 0.61 0.70 0.74 0.77 0.76 0.73 0.81 0.96 1.05 1.10 1.29 1.56 1.73
1.65 1.60 1.48 1.41 1.41 1.39 1.33 1.17 1.03 0.95 0.94 1.04 1.06 1.02 1.01 0.95 0.90 0.90 0.89 0.83 0.82 0.76 0.67 0.68 0.65 0.58 0.48 0.50 0.52 0.54 0.60 0.67 0.73 0.81 0.79 0.69 0.66 0.70 0.77 0.85 0.99 1.23 1.50
1.84 1.75 1.60 1.51 1.55 1.48 1.32 1.23 1.10 1.03 1.02 1.04 1.00 1.03 1.05 0.96 0.87 0.82 0.91 0.90 0.87 0.77 0.70 0.69 0.66 0.59 0.50 0.47 0.45 0.46 0.51 0.63 0.72 0.80 0.82 0.68 0.59 0.70 0.79 0.81 0.81 0.89 1.09
1.85 1.75 1.65 1.61 1.57 1.51 1.42 1.33 1.17 1.05 1.01 0.99 0.94 0.92 0.95 0.95 0.87 0.84 0.86 0.85 0.86 0.84 0.75 0.69 0.69 0.69 0.50 0.46 0.44 0.46 0.54 0.65 0.68 0.70 0.75 0.80 0.81 0.72 0.72 0.78 0.92 1.09 1.18
1.70 1.64 1.59 1.62 1.53 1.44 1.37 1.29 1.16 1.02 0.91 0.88 0.87 0.81 0.78 0.76 0.73 0.72 0.75 0.83 0.86 0.86 0.75 0.69 0.74 0.70 0.54 0.46 0.45 0.47 0.56 0.65 0.65 0.59 0.58 0.62 0.70 0.67 0.72 0.88 1.12 1.32 1.49
1.45 1.41 1.38 1.40 1.41 1.32 1.26 1.24 1.17 1.03 0.85 0.73 0.66 0.65 0.66 0.66 0.68 0.70 0.73 0.73 0.79 0.82 0.70 0.62 0.64 0.59 0.49 0.43 0.42 0.47 0.53 0.61 0.61 0.63 0.61 0.66 0.66 0.67 0.82 0.99 1.29 1.52 1.63
1.33 1.23 1.18 1.18 1.18 1.11 1.03 1.03 1.00 0.88 0.66 0.54 0.51 0.55 0.55 0.55 0.55 0.64 0.68 0.67 0.67 0.72 0.70 0.62 0.58 0.51 0.41 0.37 0.40 0.42 0.43 0.50 0.58 0.63 0.71 0.77 0.78 0.73 0.83 1.01 1.24 1.46 1.53
1.28 1.15 1.08 1.00 0.94 0.87 0.91 0.90 0.77 0.60 0.48 0.46 0.46 0.47 0.46 0.40 0.41 0.56 0.58 0.59 0.66 0.64 0.63 0.66 0.63 0.50 0.40 0.31 0.27 0.29 0.33 0.40 0.58 0.69 0.73 0.77 0.79 0.79 0.91 1.04 1.26 1.47 1.60
1.11 0.97 0.87 0.79 0.73 0.77 0.82 0.76 0.60 0.47 0.42 0.46 0.50 0.46 0.40 0.39 0.38 0.44 0.47 0.49 0.57 0.56 0.52 0.55 0.53 0.45 0.38 0.28 0.19 0.19 0.24 0.33 0.45 0.62 0.77 0.78 0.74 0.88 1.15 1.32 1.45 1.62 1.70
0.91 0.80 0.76 0.72 0.72 0.71 0.63 0.57 0.43 0.39 0.43 0.51 0.51 0.48 0.46 0.43 0.35 0.34 0.33 0.33 0.36 0.40 0.46 0.47 0.46 0.42 0.38 0.27 0.21 0.23 0.26 0.32 0.39 0.52 0.71 0.85 0.91 1.06 1.32 1.55 1.67 1.73 1.67
0.73 0.66 0.71 0.69 0.65 0.57 0.51 0.44 0.38 0.37 0.47 0.49 0.44 0.41 0.39 0.37 0.34 0.27 0.22 0.22 0.23 0.25 0.32 0.37 0.38 0.38 0.32 0.23 0.24 0.26 0.27 0.31 0.38 0.46 0.66 0.88 1.00 1.19 1.39 1.53 1.55 1.52 1.44
0.58 0.55 0.58 0.55 0.48 0.44 0.42 0.36 0.31 0.31 0.40 0.43 0.42 0.35 0.33 0.30 0.26 0.25 0.23 0.18 0.18 0.20 0.22 0.24 0.25 0.25 0.25 0.21 0.20 0.22 0.28 0.35 0.42 0.51 0.75 0.95 1.07 1.23 1.33 1.42 1.40 1.33 1.26

GEFSMW_prec_meanprecacc_252.txt.gz
Total_Precipitation_Accumulation
1.47 1.84 2.37 3.08 3.52 3.70 3.78 3.92 3.91 3.97 3.98 3.90 3.89 4.08 4.23 4.25 4.24 4.38 4.42 4.24 4.13 4.21 4.45 4.48 4.41 4.13 3.85 3.64 3.57 3.51 3.30 3.03 2.87 2.85 2.68 2.38 2.13 2.08 1.98 1.92 1.89 1.72 1.65
1.38 1.85 2.33 2.82 3.13 3.45 3.62 3.76 3.77 4.00 4.25 4.60 5.06 5.32 5.44 5.34 5.16 5.07 4.99 4.87 4.75 4.78 4.82 4.82 4.52 4.22 4.05 3.79 3.53 3.45 3.29 3.04 2.96 2.92 2.95 2.61 2.37 2.03 1.78 1.83 1.80 1.71 1.67
1.41 1.80 2.06 2.45 2.73 3.05 3.33 3.54 3.82 4.29 4.81 5.46 6.23 6.52 6.26 5.87 5.65 5.33 5.27 5.06 4.82 4.78 4.80 4.52 4.25 4.05 3.88 3.70 3.50 3.45 3.36 3.08 2.97 2.99 3.15 2.87 2.55 2.25 2.02 1.81 1.71 1.72 1.73
1.45 1.65 1.91 2.19 2.39 2.76 3.21 3.63 4.10 4.72 5.36 5.92 6.38 6.57 6.44 6.17 5.90 5.45 5.07 4.68 4.34 4.15 4.04 3.92 3.68 3.56 3.44 3.29 3.12 3.14 3.12 3.00 2.78 2.72 2.61 2.53 2.39 2.34 2.15 1.92 1.75 1.72 1.75
1.35 1.49 1.70 1.97 2.29 2.70 3.18 3.67 4.14 4.80 5.30 5.80 6.16 6.34 6.34 6.22 5.84 5.16 4.54 4.13 3.79 3.53 3.26 3.04 2.93 2.92 2.87 2.67 2.48 2.48 2.48 2.47 2.39 2.34 2.23 2.20 2.15 2.11 2.02 1.94 1.87 1.80 1.68
1.50 1.51 1.61 1.79 2.23 2.63 3.11 3.46 3.80 4.48 5.17 5.65 6.00 6.25 6.20 5.96 5.33 4.64 4.10 3.75 3.45 3.17 2.90 2.75 2.57 2.49 2.38 2.21 2.06 1.99 1.98 2.02 2.03 2.06 2.05 1.93 1.88 1.87 1.91 1.82 1.74 1.72 1.63
1.44 1.47 1.68 1.81 2.28 2.67 2.95 3.20 3.45 3.84 4.35 4.79 5.08 5.26 5.31 5.10 4.67 4.25 3.78 3.41 3.16 2.88 2.56 2.26 2.09 2.00 1.93 1.86 1.82 1.72 1.66 1.71 1.74 1.70 1.69 1.69 1.65 1.68 1.78 1.84 1.74 1.66 1.57
1.39 1.41 1.65 1.87 2.01 2.23 2.48 2.77 3.01 3.27 3.52 3.72 3.92 3.89 3.89 3.87 3.67 3.34 2.91 2.60 2.34 2.18 2.01 1.80 1.69 1.65 1.66 1.62 1.58 1.48 1.39 1.43 1.54 1.58 1.64 1.62 1.59 1.68 1.73 1.80 1.89 1.89 1.72
1.36 1.45 1.63 1.76 1.82 1.94 2.15 2.32 2.41 2.60 2.67 2.63 2.61 2.66 2.68 2.67 2.58 2.45 2.19 1.87 1.63 1.50 1.44 1.40 1.37 1.26 1.28 1.33 1.33 1.29 1.28 1.33 1.33 1.37 1.46 1.51 1.54 1.63 1.63 1.69 1.81 2.00 1.97
1.30 1.41 1.54 1.69 1.78 1.79 1.97 2.06 1.99 2.00 2.05 2.08 2.01 1.94 1.97 2.00 1.99 1.92 1.76 1.57 1.39 1.26 1.17 1.13 1.09 0.99 0.96 1.01 1.09 1.11 1.18 1.28 1.25 1.23 1.27 1.31 1.37 1.56 1.66 1.72 1.81 1.97 2.04
1.34 1.46 1.46 1.47 1.49 1.52 1.56 1.63 1.63 1.64 1.61 1.60 1.62 1.60 1.55 1.51 1.51 1.55 1.49 1.35 1.25 1.12 1.01 0.93 0.93 0.93 0.87 0.85 0.92 0.95 1.00 1.11 1.15 1.10 1.12 1.17 1.25 1.37 1.43 1.56 1.68 1.88 2.05
1.46 1.50 1.44 1.34 1.35 1.45 1.46 1.43 1.41 1.38 1.38 1.41 1.43 1.47 1.33 1.25 1.26 1.25 1.22 1.14 1.12 1.08 1.01 0.96 0.94 0.87 0.81 0.82 0.83 0.83 0.82 0.89 0.95 0.98 1.03 0.98 1.03 1.16 1.26 1.39 1.49 1.63 1.79
1.65 1.67 1.56 1.38 1.33 1.37 1.37 1.23 1.17 1.18 1.12 1.14 1.23 1.31 1.21 1.12 1.11 1.07 1.05 1.07 1.06 1.04 0.99 0.95 0.88 0.81 0.79 0.81 0.81 0.77 0.77 0.75 0.77 0.86 0.94 0.97 1.06 1.14 1.24 1.38 1.42 1.51 1.56
1.62 1.67 1.61 1.42 1.41 1.33 1.28 1.11 1.06 1.07 1.04 1.00 1.01 1.07 1.09 1.06 1.02 1.01 1.00 0.94 0.91 0.90 0.85 0.79 0.77 0.76 0.73 0.68 0.66 0.66 0.69 0.73 0.74 0.76 0.81 0.88 1.02 1.13 1.27 1.33 1.41 1.54 1.65
1.65 1.74 1.65 1.42 1.42 1.41 1.35 1.15 1.04 1.02 1.01 1.02 1.01 1.00 1.00 0.95 0.95 0.98 0.95 0.84 0.81 0.74 0.70 0.69 0.67 0.67 0.64 0.58 0.59 0.64 0.65 0.75 0.80 0.82 0.80 0.77 0.85 1.00 1.10 1.15 1.34 1.61 1.78
1.68 1.64 1.52 1.44 1.44 1.43 1.37 1.21 1.06 0.99 0.99 1.08 1.10 1.06 1.05 0.99 0.94 0.94 0.92 0.84 0.83 0.77 0.69 0.71 0.67 0.61 0.51 0.53 0.55 0.57 0.65 0.74 0.79 0.87 0.85 0.73 0.71 0.75 0.81 0.88 1.02 1.27 1.54
1.86 1.78 1.63 1.54 1.59 1.52 1.37 1.28 1.13 1.06 1.05 1.07 1.03 1.07 1.08 0.99 0.90 0.85 0.93 0.91 0.89 0.80 0.73 0.72 0.68 0.62 0.53 0.49 0.47 0.48 0.56 0.69 0.79 0.87 0.88 0.73 0.63 0.75 0.85 0.85 0.84 0.92 1.12
1.87 1.77 1.67 1.64 1.61 1.55 1.47 1.38 1.20 1.06 1.02 1.01 0.96 0.96 0.98 0.98 0.91 0.87 0.89 0.88 0.88 0.87 0.78 0.72 0.72 0.72 0.53 0.48 0.47 0.48 0.58 0.71 0.75 0.77 0.82 0.87 0.87 0.77 0.78 0.83 0.96 1.13 1.24
1.72 1.67 1.62 1.64 1.56 1.47 1.41 1.33 1.19 1.04 0.92 0.89 0.89 0.84 0.80 0.79 0.77 0.75 0.78 0.86 0.88 0.88 0.77 0.71 0.76 0.74 0.57 0.48 0.46 0.49 0.60 0.70 0.71 0.64 0.63 0.67 0.73 0.70 0.76 0.92 1.17 1.38 1.55
1.48 1.44 1.40 1.42 1.43 1.34 1.28 1.27 1.21 1.06 0.87 0.74 0.68 0.67 0.69 0.69 0.71 0.73 0.77 0.75 0.82 0.84 0.71 0.64 0.66 0.61 0.51 0.45 0.43 0.49 0.56 0.66 0.67 0.69 0.66 0.69 0.69 0.70 0.85 1.03 1.35 1.57 1.69
1.36 1.27 1.21 1.21 1.20 1.13 1.05 1.05 1.03 0.92 0.69 0.57 0.53 0.57 0.58 0.59 0.59 0.68 0.71 0.70 0.70 0.75 0.72 0.65 0.60 0.54 0.43 0.39 0.41 0.43 0.45 0.53 0.62 0.68 0.75 0.80 0.80 0.75 0.86 1.05 1.29 1.51 1.59
1.30 1.18 1.11 1.02 0.96 0.88 0.93 0.93 0.80 0.64 0.54 0.50 0.49 0.50 0.49 0.42 0.44 0.60 0.62 0.62 0.69 0.67 0.66 0.70 0.66 0.53 0.43 0.33 0.29 0.30 0.34 0.41 0.61 0.72 0.76 0.79 0.81 0.81 0.94 1.07 1.30 1.51 1.66
1.13 0.99 0.89 0.80 0.74 0.78 0.83 0.78 0.63 0.49 0.45 0.50 0.54 0.49 0.43 0.41 0.40 0.47 0.50 0.51 0.59 0.57 0.53 0.56 0.55 0.47 0.40 0.29 0.20 0.20 0.25 0.36 0.49 0.64 0.79 0.80 0.77 0.90 1.18 1.36 1.50 1.67 1.75
0.94 0.82 0.78 0.74 0.73 0.72 0.64 0.59 0.44 0.40 0.44 0.53 0.55 0.51 0.48 0.45 0.37 0.36 0.34 0.35 0.38 0.41 0.47 0.49 0.47 0.44 0.40 0.28 0.22 0.24 0.27 0.34 0.43 0.56 0.73 0.88 0.96 1.10 1.37 1.60 1.73 1.79 1.72
0.76 0.68 0.72 0.70 0.66 0.58 0.52 0.45 0.38 0.38 0.47 0.50 0.47 0.45 0.42 0.40 0.36 0.29 0.24 0.23 0.24 0.26 0.33 0.37 0.39 0.39 0.33 0.24 0.24 0.26 0.28 0.33 0.40 0.49 0.70 0.91 1.04 1.24 1.45 1.58 1.59 1.56 1.48
0.60 0.57 0.59 0.56 0.50 0.45 0.44 0.37 0.31 0.31 0.40 0.44 0.44 0.38 0.36 0.33 0.28 0.27 0.25 0.19 0.19 0.20 0.22 0.24 0.25 0.26 0.26 0.22 0.20 0.23 0.29 0.36 0.44 0.53 0.77 0.97 1.09 1.25 1.36 1.46 1.44 1.36 1.29

GEFSMW_prec_meanprecacc_258.txt.gz
Total_Precipitation_Accumulation
1.51 1.88 2.41 3.11 3.56 3.74 3.82 3.95 3.95 4.00 4.01 3.95 3.95 4.14 4.29 4.31 4.30 4.44 4.48 4.30 4.20 4.30 4.56 4.59 4.44 4.15 3.87 3.66 3.60 3.55 3.34 3.07 2.91 2.91 2.74 2.45 2.19 2.15 2.06 2.04 2.02 1.86 1.78
1.41 1.88 2.36 2.86 3.19 3.51 3.66 3.80 3.80 4.03 4.28 4.65 5.13 5.41 5.53 5.41 5.22 5.12 5.04 4.92 4.80 4.84 4.91 4.89 4.55 4.25 4.07 3.80 3.55 3.47 3.32 3.07 3.01 2.99 3.01 2.67 2.44 2.10 1.85 1.93 1.93 1.85 1.82
1.42 1.81 2.07 2.48 2.77 3.09 3.37 3.56 3.85 4.33 4.85 5.51 6.29 6.60 6.36 5.96 5.73 5.39 5.32 5.10 4.87 4.83 4.86 4.57 4.29 4.07 3.90 3.72 3.52 3.47 3.40 3.11 3.00 3.06 3.22 2.92 2.59 2.30 2.07 1.86 1.80 1.84 1.86
1.46 1.67 1.92 2.20 2.40 2.79 3.23 3.65 4.13 4.76 5.41 5.97 6.45 6.66 6.54 6.27 5.97 5.53 5.13 4.74 4.40 4.21 4.09 3.96 3.71 3.58 3.46 3.31 3.14 3.17 3.16 3.05 2.81 2.75 2.65 2.58 2.43 2.37 2.18 1.96 1.80 1.79 1.83
1.38 1.53 1.74 1.99 2.31 2.73 3.19 3.68 4.16 4.82 5.33 5.85 6.23 6.42 6.42 6.30 5.91 5.25 4.61 4.20 3.85 3.59 3.31 3.09 2.97 2.95 2.89 2.69 2.51 2.51 2.52 2.51 2.44 2.38 2.27 2.23 2.20 2.14 2.05 1.97 1.90 1.85 1.74
1.54 1.55 1.64 1.82 2.25 2.66 3.14 3.49 3.84 4.53 5.20 5.69 6.04 6.30 6.27 6.02 5.39 4.70 4.15 3.81 3.50 3.22 2.95 2.78 2.60 2.51 2.39 2.23 2.08 2.04 2.05 2.08 2.10 2.12 2.09 1.96 1.91 1.90 1.94 1.84 1.76 1.75 1.67
1.45 1.48 1.69 1.83 2.31 2.70 3.00 3.25 3.49 3.90 4.39 4.83 5.12 5.29 5.35 5.16 4.73 4.29 3.82 3.47 3.20 2.92 2.61 2.29 2.11 2.01 1.94 1.88 1.84 1.77 1.75 1.79 1.82 1.77 1.74 1.73 1.68 1.71 1.82 1.86 1.76 1.68 1.59
1.42 1.43 1.67 1.89 2.04 2.27 2.52 2.82 3.04 3.30 3.55 3.77 3.96 3.93 3.94 3.92 3.72 3.37 2.95 2.65 2.38 2.21 2.03 1.82 1.71 1.67 1.68 1.64 1.61 1.51 1.42 1.47 1.58 1.62 1.68 1.66 1.62 1.71 1.77 1.84 1.92 1.91 1.75
1.37 1.47 1.65 1.79 1.86 1.97 2.18 2.36 2.44 2.62 2.69 2.65 2.63 2.69 2.70 2.71 2.61 2.48 2.22 1.91 1.66 1.54 1.48 1.43 1.40 1.28 1.30 1.35 1.35 1.32 1.31 1.35 1.36 1.39 1.48 1.53 1.56 1.65 1.65 1.72 1.85 2.04 2.00
1.32 1.42 1.56 1.72 1.81 1.82 1.99 2.08 2.02 2.02 2.07 2.10 2.03 1.96 2.00 2.03 2.01 1.94 1.79 1.60 1.42 1.30 1.21 1.16 1.11 1.01 0.98 1.03 1.11 1.13 1.20 1.30 1.27 1.24 1.28 1.33 1.39 1.58 1.68 1.74 1.84 2.01 2.09
1.37 1.48 1.48 1.48 1.51 1.54 1.58 1.65 1.66 1.66 1.63 1.62 1.64 1.62 1.58 1.53 1.53 1.57 1.51 1.37 1.26 1.15 1.05 0.96 0.95 0.94 0.88 0.86 0.93 0.96 1.01 1.12 1.17 1.12 1.14 1.18 1.28 1.40 1.45 1.58 1.70 1.90 2.10
1.51 1.54 1.46 1.36 1.36 1.47 1.48 1.46 1.43 1.40 1.40 1.43 1.45 1.49 1.34 1.26 1.27 1.27 1.24 1.16 1.13 1.10 1.04 0.99 0.96 0.89 0.82 0.82 0.84 0.83 0.83 0.91 0.97 1.00 1.05 1.01 1.06 1.20 1.29 1.42 1.51 1.66 1.82
1.68 1.69 1.58 1.41 1.35 1.39 1.39 1.27 1.20 1.19 1.13 1.15 1.25 1.33 1.22 1.14 1.14 1.10 1.07 1.08 1.07 1.05 1.01 0.97 0.90 0.83 0.80 0.82 0.82 0.78 0.78 0.77 0.79 0.88 0.97 1.00 1.11 1.19 1.28 1.41 1.45 1.53 1.59
1.64 1.69 1.64 1.46 1.44 1.35 1.30 1.14 1.09 1.09 1.06 1.03 1.04 1.10 1.12 1.09 1.05 1.04 1.01 0.95 0.92 0.90 0.85 0.80 0.78 0.77 0.74 0.69 0.67 0.68 0.70 0.75 0.76 0.79 0.83 0.91 1.05 1.17 1.32 1.37 1.45 1.57 1.68
1.67 1.77 1.69 1.46 1.45 1.43 1.37 1.17 1.05 1.05 1.03 1.05 1.04 1.03 1.03 0.97 0.97 0.99 0.96 0.85 0.81 0.74 0.71 0.69 0.68 0.67 0.65 0.60 0.60 0.65 0.67 0.78 0.84 0.86 0.84 0.82 0.90 1.05 1.14 1.19 1.39 1.65 1.82
1.71 1.67 1.55 1.47 1.46 1.45 1.40 1.23 1.08 1.01 1.01 1.09 1.11 1.08 1.06 1.00 0.95 0.94 0.93 0.85 0.83 0.78 0.69 0.71 0.68 0.62 0.52 0.54 0.56 0.59 0.66 0.76 0.83 0.91 0.89 0.79 0.77 0.81 0.86 0.93 1.07 1.31 1.59
1.90 1.83 1.66 1.57 1.60 1.54 1.39 1.30 1.15 1.08 1.06 1.07 1.04 1.07 1.09 1.00 0.91 0.86 0.93 0.91 0.89 0.80 0.74 0.73 0.71 0.64 0.54 0.50 0.48 0.50 0.58 0.73 0.83 0.92 0.93 0.78 0.67 0.80 0.90 0.92 0.92 1.01 1.20
1.90 1.81 1.70 1.67 1.62 1.56 1.49 1.40 1.21 1.08 1.03 1.02 0.97 0.97 0.98 0.99 0.91 0.88 0.90 0.89 0.90 0.89 0.80 0.73 0.73 0.73 0.54 0.49 0.48 0.50 0.61 0.74 0.79 0.81 0.86 0.91 0.92 0.83 0.86 0.91 1.05 1.21 1.32
1.75 1.70 1.65 1.66 1.58 1.49 1.43 1.35 1.21 1.06 0.94 0.91 0.91 0.85 0.82 0.81 0.80 0.78 0.80 0.88 0.90 0.89 0.78 0.72 0.77 0.75 0.58 0.49 0.48 0.50 0.62 0.72 0.73 0.67 0.67 0.71 0.76 0.73 0.80 0.96 1.20 1.41 1.60
1.52 1.47 1.42 1.43 1.44 1.35 1.29 1.28 1.22 1.08 0.89 0.77 0.71 0.70 0.72 0.72 0.74 0.76 0.79 0.77 0.83 0.85 0.72 0.65 0.67 0.63 0.53 0.46 0.44 0.49 0.57 0.68 0.69 0.72 0.70 0.72 0.71 0.72 0.87 1.06 1.37 1.58 1.70
1.40 1.32 1.24 1.23 1.21 1.14 1.06 1.05 1.04 0.93 0.71 0.59 0.55 0.59 0.59 0.61 0.61 0.70 0.73 0.71 0.70 0.75 0.73 0.65 0.61 0.54 0.44 0.40 0.42 0.44 0.47 0.55 0.65 0.69 0.77 0.81 0.81 0.76 0.87 1.07 1.31 1.53 1.61
1.32 1.20 1.13 1.04 0.97 0.90 0.94 0.95 0.82 0.65 0.55 0.51 0.50 0.51 0.50 0.44 0.45 0.61 0.64 0.63 0.70 0.68 0.67 0.71 0.67 0.54 0.44 0.34 0.30 0.32 0.36 0.43 0.63 0.75 0.78 0.80 0.83 0.83 0.95 1.08 1.31 1.54 1.68
1.14 1.00 0.90 0.81 0.75 0.80 0.85 0.82 0.67 0.53 0.48 0.53 0.56 0.50 0.44 0.43 0.41 0.48 0.51 0.53 0.61 0.58 0.55 0.58 0.56 0.48 0.40 0.30 0.20 0.20 0.26 0.36 0.50 0.66 0.81 0.82 0.78 0.91 1.18 1.37 1.52 1.68 1.77
0.95 0.83 0.79 0.75 0.75 0.74 0.66 0.60 0.46 0.41 0.47 0.55 0.56 0.52 0.49 0.46 0.39 0.37 0.35 0.36 0.40 0.42 0.48 0.49 0.47 0.44 0.40 0.28 0.22 0.25 0.27 0.35 0.44 0.57 0.75 0.90 0.97 1.12 1.39 1.62 1.76 1.84 1.78
0.79 0.70 0.73 0.71 0.68 0.59 0.54 0.46 0.39 0.39 0.49 0.52 0.48 0.45 0.42 0.41 0.38 0.30 0.25 0.24 0.25 0.27 0.33 0.38 0.39 0.39 0.33 0.24 0.25 0.27 0.28 0.33 0.40 0.50 0.71 0.92 1.05 1.25 1.46 1.59 1.61 1.58 1.52
0.63 0.59 0.60 0.58 0.51 0.46 0.45 0.38 0.33 0.32 0.43 0.46 0.45 0.40 0.36 0.34 0.30 0.28 0.26 0.21 0.20 0.21 0.22 0.24 0.25 0.26 0.26 0.22 0.21 0.24 0.29 0.36 0.44 0.53 0.78 0.98 1.10 1.26 1.38 1.48 1.46 1.37 1.30

GEFSMW_prec_meanprecacc_264.txt.gz
Total_Precipitation_Accumulation
1.55 1.91 2.44 3.14 3.60 3.79 3.87 4.01 3.99 4.04 4.04 3.99 3.99 4.19 4.35 4.36 4.34 4.49 4.53 4.37 4.28 4.39 4.68 4.73 4.54 4.22 3.93 3.71 3.63 3.58 3.37 3.10 2.94 2.93 2.77 2.47 2.22 2.17 2.09 2.07 2.06 1.91 1.84
1.45 1.92 2.40 2.90 3.22 3.56 3.74 3.92 3.90 4.08 4.33 4.70 5.18 5.46 5.59 5.46 5.26 5.15 5.07 4.95 4.86 4.91 5.00 5.05 4.70 4.33 4.13 3.85 3.59 3.50 3.35 3.10 3.04 3.03 3.05 2.70 2.47 2.12 1.87 1.94 1.95 1.88 1.88
1.45 1.82 2.08 2.49 2.79 3.15 3.47 3.67 3.94 4.40 4.91 5.56 6.34 6.65 6.41 6.01 5.79 5.43 5.35 5.13 4.93 4.89 4.94 4.66 4.42 4.18 3.97 3.77 3.55 3.50 3.42 3.14 3.03 3.09 3.25 2.97 2.63 2.32 2.08 1.88 1.82 1.86 1.90
1.48 1.68 1.93 2.22 2.42 2.81 3.27 3.69 4.16 4.78 5.44 6.02 6.50 6.70 6.58 6.32 6.04 5.58 5.16 4.76 4.44 4.25 4.14 4.02 3.79 3.67 3.53 3.36 3.18 3.19 3.18 3.07 2.83 2.77 2.67 2.61 2.46 2.40 2.20 1.98 1.81 1.81 1.87
1.39 1.54 1.75 2.01 2.32 2.75 3.22 3.71 4.18 4.84 5.35 5.89 6.28 6.46 6.48 6.38 5.99 5.31 4.65 4.22 3.88 3.63 3.34 3.12 3.00 2.99 2.94 2.73 2.54 2.53 2.53 2.53 2.45 2.39 2.28 2.25 2.22 2.17 2.07 1.98 1.91 1.88 1.77
1.55 1.57 1.65 1.83 2.27 2.67 3.16 3.51 3.86 4.54 5.22 5.72 6.08 6.34 6.31 6.07 5.45 4.75 4.19 3.83 3.52 3.25 2.99 2.80 2.62 2.53 2.42 2.26 2.10 2.05 2.06 2.09 2.10 2.13 2.11 1.97 1.93 1.92 1.96 1.86 1.78 1.77 1.70
1.47 1.49 1.70 1.84 2.32 2.72 3.01 3.26 3.50 3.91 4.41 4.86 5.16 5.34 5.38 5.19 4.76 4.33 3.85 3.49 3.23 2.95 2.63 2.31 2.13 2.03 1.97 1.90 1.86 1.78 1.76 1.80 1.82 1.78 1.76 1.75 1.70 1.73 1.84 1.90 1.79 1.70 1.62
1.43 1.44 1.67 1.90 2.05 2.28 2.53 2.83 3.05 3.32 3.58 3.81 3.99 3.95 3.95 3.94 3.74 3.40 2.99 2.69 2.41 2.23 2.06 1.84 1.72 1.68 1.70 1.65 1.62 1.52 1.43 1.48 1.59 1.63 1.69 1.67 1.63 1.73 1.79 1.87 1.95 1.94 1.77
1.38 1.47 1.65 1.79 1.86 1.99 2.19 2.37 2.45 2.64 2.72 2.68 2.65 2.70 2.71 2.72 2.63 2.50 2.26 1.95 1.70 1.56 1.50 1.44 1.41 1.30 1.32 1.36 1.36 1.33 1.32 1.37 1.37 1.41 1.49 1.55 1.58 1.68 1.69 1.75 1.89 2.09 2.03
1.33 1.43 1.56 1.72 1.81 1.83 2.00 2.10 2.03 2.04 2.11 2.13 2.06 1.98 2.02 2.06 2.04 1.97 1.83 1.63 1.45 1.30 1.21 1.17 1.12 1.02 0.99 1.04 1.12 1.14 1.21 1.32 1.29 1.26 1.31 1.35 1.42 1.61 1.72 1.80 1.90 2.07 2.14
1.38 1.49 1.49 1.50 1.52 1.55 1.60 1.67 1.68 1.69 1.70 1.69 1.69 1.65 1.61 1.57 1.57 1.60 1.55 1.40 1.27 1.15 1.05 0.97 0.96 0.95 0.89 0.87 0.95 0.97 1.03 1.16 1.19 1.13 1.16 1.21 1.31 1.44 1.48 1.61 1.75 1.96 2.16
1.52 1.55 1.49 1.38 1.38 1.49 1.52 1.50 1.49 1.46 1.48 1.49 1.50 1.52 1.37 1.29 1.30 1.30 1.28 1.18 1.14 1.10 1.05 1.00 0.98 0.90 0.83 0.84 0.85 0.85 0.86 0.95 1.00 1.02 1.07 1.02 1.09 1.24 1.33 1.46 1.55 1.70 1.86
1.69 1.71 1.62 1.48 1.40 1.43 1.44 1.31 1.25 1.23 1.16 1.18 1.29 1.36 1.24 1.15 1.16 1.14 1.10 1.09 1.08 1.06 1.01 0.98 0.91 0.84 0.82 0.83 0.83 0.80 0.80 0.80 0.82 0.90 0.98 1.03 1.15 1.24 1.33 1.44 1.47 1.56 1.63
1.65 1.71 1.69 1.53 1.49 1.39 1.33 1.16 1.11 1.10 1.07 1.04 1.05 1.12 1.13 1.10 1.06 1.06 1.02 0.96 0.92 0.91 0.86 0.81 0.79 0.78 0.75 0.70 0.69 0.69 0.72 0.76 0.78 0.81 0.86 0.94 1.09 1.21 1.37 1.42 1.48 1.60 1.71
1.69 1.79 1.71 1.49 1.48 1.46 1.39 1.18 1.06 1.06 1.04 1.06 1.05 1.04 1.03 0.98 0.97 1.00 0.98 0.86 0.82 0.75 0.71 0.70 0.68 0.68 0.66 0.61 0.62 0.66 0.69 0.79 0.85 0.87 0.86 0.84 0.93 1.09 1.20 1.25 1.44 1.70 1.84
1.72 1.69 1.57 1.49 1.48 1.47 1.42 1.24 1.09 1.02 1.02 1.09 1.11 1.08 1.06 1.00 0.95 0.95 0.95 0.87 0.84 0.79 0.70 0.71 0.69 0.63 0.53 0.55 0.57 0.60 0.68 0.78 0.85 0.93 0.91 0.81 0.80 0.85 0.91 0.99 1.12 1.38 1.62
1.91 1.84 1.68 1.60 1.63 1.56 1.40 1.31 1.16 1.09 1.07 1.07 1.04 1.08 1.09 1.01 0.92 0.87 0.95 0.92 0.90 0.81 0.75 0.74 0.71 0.65 0.54 0.51 0.50 0.52 0.60 0.75 0.85 0.94 0.95 0.80 0.70 0.82 0.93 0.94 0.96 1.06 1.25
1.91 1.82 1.72 1.69 1.66 1.58 1.50 1.40 1.21 1.08 1.03 1.02 0.97 0.97 0.99 1.00 0.93 0.90 0.90 0.90 0.91 0.90 0.81 0.74 0.74 0.74 0.54 0.50 0.49 0.51 0.62 0.75 0.80 0.82 0.87 0.92 0.93 0.85 0.88 0.93 1.07 1.25 1.35
1.76 1.71 1.66 1.68 1.60 1.51 1.44 1.36 1.22 1.06 0.94 0.92 0.92 0.86 0.83 0.82 0.81 0.79 0.81 0.89 0.91 0.90 0.79 0.73 0.78 0.76 0.59 0.50 0.48 0.51 0.62 0.72 0.74 0.68 0.67 0.72 0.77 0.75 0.82 0.97 1.22 1.44 1.62
1.53 1.49 1.43 1.44 1.45 1.37 1.31 1.29 1.23 1.09 0.91 0.79 0.73 0.71 0.73 0.73 0.75 0.77 0.80 0.79 0.84 0.85 0.73 0.66 0.68 0.63 0.53 0.46 0.44 0.50 0.57 0.68 0.70 0.73 0.71 0.74 0.72 0.73 0.88 1.07 1.38 1.60 1.72
1.43 1.33 1.25 1.23 1.22 1.15 1.07 1.06 1.05 0.95 0.74 0.61 0.57 0.61 0.61 0.61 0.61 0.70 0.74 0.72 0.71 0.76 0.73 0.66 0.61 0.55 0.45 0.40 0.43 0.45 0.47 0.56 0.66 0.70 0.77 0.82 0.82 0.78 0.88 1.09 1.34 1.56 1.64
1.35 1.23 1.15 1.06 0.98 0.91 0.95 0.95 0.83 0.68 0.58 0.53 0.52 0.53 0.51 0.44 0.46 0.62 0.65 0.64 0.71 0.69 0.68 0.71 0.67 0.54 0.45 0.36 0.31 0.34 0.38 0.45 0.65 0.77 0.79 0.82 0.84 0.83 0.95 1.09 1.35 1.60 1.75
1.17 1.03 0.92 0.83 0.77 0.81 0.86 0.83 0.68 0.55 0.50 0.55 0.57 0.52 0.45 0.44 0.43 0.49 0.53 0.54 0.62 0.60 0.56 0.59 0.58 0.50 0.42 0.32 0.22 0.22 0.27 0.38 0.52 0.68 0.83 0.83 0.78 0.92 1.19 1.38 1.52 1.70 1.82
0.97 0.85 0.81 0.77 0.76 0.74 0.66 0.61 0.47 0.42 0.47 0.56 0.57 0.53 0.50 0.47 0.40 0.38 0.36 0.37 0.40 0.43 0.49 0.50 0.48 0.45 0.40 0.29 0.23 0.25 0.27 0.35 0.44 0.57 0.76 0.91 0.98 1.13 1.40 1.63 1.77 1.84 1.79
0.80 0.71 0.75 0.73 0.69 0.61 0.54 0.47 0.39 0.40 0.50 0.53 0.49 0.46 0.43 0.42 0.39 0.31 0.26 0.25 0.26 0.28 0.34 0.38 0.39 0.40 0.33 0.24 0.25 0.27 0.29 0.33 0.41 0.51 0.72 0.93 1.06 1.26 1.47 1.60 1.62 1.59 1.53
0.64 0.60 0.62 0.59 0.53 0.48 0.47 0.40 0.34 0.33 0.43 0.47 0.46 0.40 0.37 0.35 0.31 0.29 0.27 0.21 0.20 0.21 0.22 0.24 0.25 0.27 0.26 0.23 0.22 0.24 0.29 0.37 0.45 0.55 0.79 0.99 1.11 1.28 1.39 1.49 1.47 1.38 1.31

GEFSMW_prec_meanprecacc_270.txt.gz
Total_Precipitation_Accumulation
1.58 1.94 2.46 3.17 3.63 3.82 3.90 4.05 4.04 4.08 4.09 4.04 4.05 4.25 4.40 4.41 4.39 4.52 4.57 4.40 4.33 4.47 4.78 4.81 4.62 4.31 3.99 3.76 3.69 3.64 3.42 3.15 2.99 2.98 2.81 2.51 2.25 2.21 2.14 2.12 2.10 1.94 1.87
1.47 1.93 2.42 2.92 3.24 3.59 3.77 3.96 3.96 4.14 4.38 4.74 5.22 5.50 5.63 5.50 5.30 5.18 5.10 4.99 4.90 4.98 5.08 5.12 4.76 4.40 4.20 3.91 3.65 3.56 3.39 3.13 3.08 3.07 3.09 2.73 2.50 2.16 1.89 1.98 1.98 1.92 1.92
1.47 1.84 2.10 2.51 2.81 3.18 3.52 3.78 4.08 4.49 4.99 5.62 6.39 6.70 6.45 6.04 5.81 5.46 5.39 5.18 4.96 4.92 4.99 4.71 4.48 4.25 4.04 3.84 3.62 3.55 3.48 3.19 3.08 3.15 3.31 3.01 2.67 2.36 2.11 1.91 1.84 1.90 1.94
1.49 1.69 1.94 2.23 2.43 2.81 3.29 3.73 4.28 4.90 5.52 6.09 6.55 6.75 6.63 6.36 6.07 5.61 5.20 4.81 4.48 4.28 4.17 4.05 3.83 3.73 3.58 3.41 3.24 3.24 3.23 3.12 2.88 2.81 2.72 2.66 2.50 2.44 2.23 2.00 1.84 1.83 1.89
1.40 1.55 1.76 2.01 2.32 2.75 3.23 3.71 4.20 4.91 5.40 5.92 6.31 6.50 6.52 6.43 6.03 5.34 4.68 4.26 3.93 3.67 3.37 3.15 3.04 3.03 2.98 2.77 2.58 2.57 2.57 2.56 2.49 2.43 2.31 2.28 2.26 2.22 2.12 2.02 1.94 1.90 1.79
1.56 1.57 1.66 1.84 2.27 2.68 3.17 3.52 3.86 4.56 5.23 5.73 6.10 6.36 6.34 6.11 5.50 4.79 4.23 3.86 3.55 3.29 3.02 2.83 2.65 2.58 2.48 2.30 2.15 2.10 2.10 2.13 2.14 2.17 2.15 2.02 1.98 1.97 2.02 1.91 1.82 1.81 1.74
1.48 1.50 1.71 1.84 2.33 2.73 3.03 3.28 3.51 3.92 4.42 4.87 5.18 5.37 5.41 5.22 4.79 4.36 3.88 3.52 3.25 2.98 2.68 2.35 2.17 2.08 2.03 1.96 1.91 1.84 1.82 1.86 1.88 1.84 1.81 1.80 1.76 1.78 1.90 1.95 1.85 1.75 1.66
1.44 1.45 1.68 1.91 2.05 2.29 2.54 2.84 3.06 3.32 3.59 3.82 4.01 3.98 3.97 3.96 3.76 3.42 3.01 2.72 2.44 2.27 2.11 1.90 1.77 1.74 1.75 1.71 1.69 1.60 1.50 1.55 1.66 1.68 1.74 1.72 1.69 1.78 1.83 1.92 2.01 1.99 1.81
1.38 1.48 1.66 1.80 1.87 2.00 2.20 2.38 2.46 2.65 2.73 2.70 2.67 2.71 2.72 2.73 2.64 2.52 2.29 1.98 1.73 1.59 1.54 1.50 1.46 1.33 1.35 1.41 1.41 1.39 1.37 1.42 1.42 1.45 1.53 1.59 1.63 1.71 1.72 1.79 1.94 2.15 2.08
1.33 1.43 1.57 1.73 1.82 1.84 2.01 2.11 2.05 2.07 2.13 2.15 2.08 1.99 2.04 2.07 2.06 2.00 1.87 1.68 1.49 1.34 1.25 1.22 1.17 1.05 1.02 1.07 1.15 1.18 1.26 1.36 1.33 1.30 1.34 1.38 1.45 1.65 1.76 1.85 1.95 2.12 2.20
1.38 1.50 1.50 1.51 1.53 1.56 1.61 1.69 1.70 1.72 1.73 1.72 1.74 1.72 1.67 1.63 1.64 1.68 1.63 1.49 1.35 1.22 1.12 1.02 1.00 0.98 0.91 0.90 0.97 1.00 1.06 1.20 1.24 1.19 1.20 1.25 1.35 1.49 1.54 1.68 1.81 2.02 2.22
1.53 1.57 1.51 1.40 1.40 1.51 1.53 1.51 1.50 1.48 1.51 1.56 1.60 1.65 1.51 1.42 1.42 1.43 1.41 1.29 1.23 1.17 1.10 1.04 1.00 0.92 0.85 0.86 0.87 0.87 0.89 0.99 1.04 1.07 1.11 1.06 1.13 1.29 1.39 1.52 1.62 1.76 1.92
1.71 1.74 1.64 1.49 1.44 1.46 1.45 1.32 1.26 1.25 1.17 1.20 1.33 1.43 1.32 1.21 1.20 1.19 1.16 1.15 1.12 1.09 1.03 0.99 0.92 0.85 0.83 0.85 0.85 0.82 0.83 0.83 0.86 0.95 1.04 1.08 1.19 1.27 1.37 1.50 1.53 1.61 1.67
1.66 1.73 1.70 1.54 1.50 1.40 1.34 1.17 1.12 1.11 1.07 1.04 1.06 1.14 1.17 1.14 1.09 1.09 1.06 0.99 0.95 0.93 0.87 0.82 0.80 0.79 0.76 0.72 0.71 0.72 0.75 0.79 0.81 0.85 0.90 0.98 1.13 1.25 1.42 1.47 1.54 1.65 1.76
1.70 1.80 1.72 1.50 1.49 1.46 1.40 1.19 1.07 1.06 1.05 1.06 1.06 1.05 1.05 0.99 0.99 1.03 1.01 0.89 0.84 0.77 0.74 0.72 0.70 0.69 0.67 0.62 0.63 0.68 0.71 0.82 0.87 0.90 0.89 0.88 0.96 1.13 1.24 1.30 1.49 1.76 1.92
1.73 1.70 1.58 1.50 1.49 1.48 1.42 1.25 1.10 1.03 1.03 1.10 1.11 1.09 1.08 1.01 0.97 0.99 0.99 0.90 0.87 0.82 0.73 0.74 0.71 0.65 0.54 0.56 0.58 0.61 0.70 0.81 0.87 0.96 0.94 0.83 0.83 0.87 0.93 1.02 1.17 1.44 1.69
1.92 1.84 1.69 1.61 1.64 1.57 1.40 1.31 1.16 1.09 1.07 1.08 1.04 1.09 1.10 1.02 0.94 0.89 0.97 0.95 0.93 0.83 0.77 0.76 0.72 0.66 0.56 0.52 0.50 0.52 0.62 0.76 0.87 0.96 0.97 0.81 0.71 0.84 0.94 0.96 0.99 1.10 1.30
1.92 1.83 1.73 1.71 1.67 1.59 1.50 1.41 1.22 1.08 1.03 1.02 0.98 0.98 1.00 1.01 0.94 0.91 0.92 0.92 0.93 0.91 0.82 0.75 0.75 0.74 0.55 0.51 0.50 0.52 0.62 0.76 0.81 0.83 0.89 0.94 0.94 0.86 0.90 0.95 1.11 1.29 1.40
1.77 1.72 1.67 1.69 1.61 1.52 1.45 1.36 1.22 1.07 0.94 0.92 0.92 0.87 0.84 0.83 0.82 0.80 0.83 0.92 0.94 0.92 0.81 0.74 0.79 0.77 0.59 0.51 0.49 0.51 0.63 0.73 0.74 0.68 0.68 0.73 0.79 0.76 0.84 1.00 1.26 1.48 1.66
1.55 1.50 1.44 1.44 1.46 1.37 1.31 1.29 1.24 1.10 0.91 0.79 0.73 0.72 0.73 0.74 0.76 0.78 0.82 0.81 0.86 0.87 0.74 0.67 0.69 0.65 0.55 0.48 0.46 0.51 0.58 0.69 0.71 0.74 0.72 0.75 0.74 0.74 0.88 1.08 1.40 1.62 1.74
1.45 1.35 1.26 1.24 1.23 1.16 1.07 1.07 1.05 0.96 0.75 0.61 0.58 0.61 0.61 0.62 0.62 0.71 0.75 0.74 0.73 0.77 0.74 0.67 0.62 0.56 0.46 0.42 0.44 0.46 0.48 0.56 0.67 0.72 0.78 0.83 0.83 0.78 0.89 1.10 1.35 1.58 1.65
1.37 1.24 1.16 1.07 0.99 0.92 0.96 0.96 0.84 0.70 0.59 0.54 0.53 0.54 0.53 0.45 0.47 0.64 0.67 0.66 0.72 0.70 0.69 0.73 0.69 0.56 0.46 0.36 0.32 0.35 0.39 0.46 0.67 0.78 0.80 0.83 0.85 0.84 0.96 1.09 1.36 1.61 1.77
1.19 1.06 0.94 0.84 0.77 0.81 0.87 0.84 0.69 0.56 0.51 0.55 0.58 0.53 0.46 0.45 0.44 0.51 0.54 0.56 0.64 0.62 0.58 0.61 0.60 0.52 0.44 0.33 0.23 0.23 0.28 0.38 0.53 0.69 0.84 0.84 0.80 0.93 1.20 1.38 1.53 1.71 1.84
1.00 0.88 0.84 0.79 0.77 0.75 0.67 0.61 0.47 0.42 0.48 0.57 0.58 0.54 0.51 0.48 0.41 0.39 0.37 0.39 0.43 0.45 0.51 0.51 0.50 0.47 0.42 0.31 0.25 0.26 0.28 0.36 0.45 0.58 0.77 0.93 0.99 1.14 1.41 1.64 1.78 1.85 1.80
0.83 0.75 0.78 0.76 0.71 0.62 0.55 0.48 0.40 0.40 0.50 0.54 0.50 0.47 0.44 0.43 0.40 0.32 0.28 0.27 0.29 0.30 0.35 0.39 0.41 0.40 0.34 0.25 0.26 0.28 0.29 0.34 0.43 0.52 0.73 0.94 1.07 1.27 1.48 1.61 1.62 1.61 1.55
0.65 0.62 0.65 0.63 0.56 0.50 0.48 0.41 0.35 0.34 0.44 0.48 0.47 0.41 0.37 0.35 0.31 0.30 0.30 0.24 0.22 0.22 0.23 0.25 0.26 0.27 0.27 0.23 0.22 0.25 0.30 0.37 0.46 0.55 0.80 1.01 1.12 1.29 1.41 1.50 1.48 1.39 1.33